GEFSCGP_500_meanwind_096.txt.gz
Wind_Speed
18 16 14 11 10 9 11 13 13 12 11 15 17 15 16 21 22 24 25 24 22 20 18 15 14 13 11 9 10 11 13 14 15 15 16 18 18 17 16 15 13 12 11 10
19 16 14 12 11 12 15 16 14 14 14 15 16 14 16 20 20 22 23 22 22 20 18 15 14 12 10 9 9 10 11 13 14 16 16 18 19 17 16 15 14 13 12 10
19 15 14 15 15 14 16 15 13 15 15 14 15 16 18 20 21 19 20 21 21 20 18 16 14 12 10 8 8 10 9 10 13 15 16 17 18 17 15 15 14 14 13 12
18 15 15 18 17 15 16 13 14 15 16 15 15 17 17 21 21 20 20 20 21 19 18 16 14 12 10 7 7 9 9 10 12 14 16 17 17 17 16 15 14 14 14 14
17 16 17 18 18 16 15 15 16 17 17 16 14 15 17 18 20 22 22 21 20 19 18 16 14 12 10 7 7 7 8 10 11 12 15 16 17 17 16 15 15 15 15 14
18 17 18 18 17 17 16 16 17 15 14 13 13 14 15 15 20 22 22 21 19 18 18 16 13 12 10 6 5 5 7 9 10 11 13 15 17 17 16 16 16 16 15 15
18 17 18 18 17 15 15 15 14 13 14 16 15 14 12 15 18 21 21 20 17 17 17 15 13 12 9 6 4 3 5 7 9 11 13 14 16 17 17 16 16 16 16 16
16 17 16 18 17 15 15 15 15 15 17 18 18 15 12 12 16 20 20 18 16 16 15 14 13 12 9 6 4 3 5 7 9 10 12 14 15 16 17 17 16 16 17 16
13 12 14 17 17 17 15 16 14 17 18 19 18 14 13 14 18 18 17 17 16 15 15 15 13 12 10 6 4 3 4 6 7 8 10 13 14 16 17 17 17 17 17 17
18 17 13 16 17 16 16 15 15 17 18 18 15 15 16 17 17 17 17 17 17 15 15 14 13 11 9 6 4 3 3 4 6 7 8 11 13 16 17 17 18 18 17 16
21 22 18 17 18 15 15 16 17 18 18 17 17 18 20 19 18 13 17 18 18 16 15 14 13 11 9 6 4 4 4 5 6 8 9 11 12 13 15 16 17 17 17 17
22 22 22 21 19 17 17 16 17 20 20 20 20 20 21 20 15 13 16 20 19 17 16 14 13 11 10 7 5 4 4 5 7 8 9 9 11 12 13 14 15 17 18 18
27 26 24 22 20 19 21 19 20 21 22 21 20 21 20 21 21 19 18 21 20 18 17 15 13 11 10 8 7 6 5 5 6 8 9 10 11 12 13 15 16 17 18 19
33 31 28 23 20 23 26 26 25 23 22 22 21 23 24 24 24 23 23 22 20 19 19 18 15 13 11 10 8 7 7 7 7 7 9 10 10 12 13 15 15 16 18 19
35 34 32 29 27 26 24 25 26 25 24 25 25 24 25 27 28 27 26 23 21 22 21 18 17 16 13 12 10 9 8 8 9 9 9 10 11 12 13 14 15 16 18 20
34 35 34 32 30 27 27 25 24 23 24 25 28 28 27 31 32 32 29 27 26 25 23 21 21 19 16 15 13 11 10 10 10 11 11 11 12 13 14 15 16 17 18 18
31 34 35 33 30 31 31 28 27 28 28 29 30 32 33 34 35 35 32 30 29 29 26 26 24 21 19 17 16 14 13 13 13 13 13 13 14 15 16 17 17 17 17 17
33 32 33 32 33 35 31 30 31 33 33 33 35 36 36 37 37 36 35 36 35 33 31 29 27 25 22 21 20 18 17 16 16 16 16 16 17 18 18 19 19 18 18 18
33 34 33 32 32 32 29 30 32 33 33 35 36 36 36 36 36 36 36 37 37 35 33 31 29 28 25 24 22 21 20 20 19 19 19 19 19 19 20 20 21 21 21 21
34 34 33 32 33 31 30 31 32 32 34 36 36 35 36 36 36 37 36 35 35 35 34 31 31 30 28 27 25 24 23 23 22 22 22 21 21 21 21 22 23 24 25 26
31 31 30 30 31 31 33 33 33 33 35 35 34 34 34 35 36 35 35 35 34 34 34 33 32 32 31 30 29 27 27 26 25 24 24 24 24 24 24 25 25 26 28 29
28 28 27 28 28 30 33 33 33 34 33 32 32 33 33 33 34 34 34 34 34 34 34 34 34 34 33 32 31 30 30 29 27 27 26 27 27 27 27 28 28 30 31 32
28 27 26 28 29 31 33 32 31 31 32 32 33 33 33 33 33 33 33 33 34 34 35 34 34 35 34 34 34 33 31 30 30 30 31 30 29 30 30 30 31 32 33 33
27 29 28 29 30 32 32 31 31 31 31 31 32 32 32 32 32 32 32 32 32 33 33 33 34 34 34 34 34 33 32 32 32 32 33 32 32 32 31 32 32 32 33 33
27 27 27 29 30 31 31 30 31 30 30 30 30 30 30 30 30 30 30 30 30 31 32 32 32 33 33 33 33 33 33 33 34 33 34 33 33 32 31 31 32 32 33 33
26 28 28 28 28 28 28 28 29 29 29 28 28 27 27 27 27 27 27 27 28 29 30 31 32 33 33 33 33 34 33 32 32 33 32 31 29 28 29 30 31 32 33 34

GEFSCGP_500_meanwind_102.txt.gz
Wind_Speed
15 13 13 14 13 13 13 13 11 8 10 13 14 14 14 17 19 21 20 20 20 19 18 17 16 13 12 9 5 5 6 8 10 11 14 15 16 18 17 17 16 15 13 12
16 14 15 15 15 14 13 13 12 10 11 14 16 16 17 17 18 19 19 18 17 17 17 17 15 13 11 8 5 4 5 6 8 10 13 14 16 18 18 18 17 15 14 13
16 16 18 17 17 16 14 13 12 12 13 15 18 18 18 17 16 17 17 16 16 15 15 15 14 13 11 8 5 5 4 6 7 8 10 13 16 18 18 17 17 16 15 14
17 17 18 18 17 17 14 12 14 15 16 17 18 19 17 17 16 16 16 15 14 14 14 13 13 12 11 8 4 3 4 6 7 9 10 13 16 17 18 18 17 16 16 15
16 18 18 18 17 16 14 14 16 17 18 18 18 19 17 16 17 16 15 13 11 12 12 12 12 12 10 8 5 3 4 5 7 9 11 14 15 17 18 18 17 17 16 16
17 18 18 17 17 15 14 15 16 17 17 17 16 17 16 15 16 16 14 11 10 11 11 12 12 11 10 7 3 2 3 4 6 9 11 14 15 16 18 18 17 17 17 16
18 18 17 16 15 14 14 15 16 17 17 14 14 15 15 16 16 15 13 9 9 9 10 11 12 11 10 7 3 2 2 4 6 8 11 13 15 16 18 19 18 18 18 17
18 16 16 16 14 13 13 15 17 18 16 14 14 14 13 14 15 15 11 7 7 9 9 11 12 11 10 7 4 2 2 4 6 8 10 12 14 16 17 18 18 18 18 18
18 17 18 18 15 15 14 15 16 18 18 17 16 15 15 15 16 14 11 7 6 8 9 10 11 10 9 7 5 3 3 4 7 8 10 11 14 16 16 17 17 18 18 18
17 18 19 18 17 16 14 12 15 18 19 19 17 16 16 17 16 15 11 10 8 8 9 10 9 10 10 8 6 4 3 4 6 8 9 10 12 15 16 16 17 18 18 17
19 19 19 20 17 16 15 15 17 18 19 20 19 18 17 17 17 15 14 11 8 9 11 10 9 9 10 9 6 4 4 4 6 7 8 10 12 12 13 15 17 18 18 18
21 21 21 22 21 20 19 19 19 20 20 20 21 20 18 19 18 17 15 13 12 12 12 11 10 10 10 9 8 5 5 5 6 6 8 10 11 12 12 13 15 16 17 17
27 27 26 25 25 25 23 22 22 21 21 22 23 23 21 21 21 18 17 16 14 12 11 11 11 11 11 10 9 7 5 5 6 7 8 8 10 11 12 13 14 15 16 16
33 32 31 29 28 28 27 26 26 25 25 25 25 26 26 23 22 20 18 17 16 14 12 13 14 13 12 11 10 9 7 7 7 7 7 9 10 11 12 13 14 13 14 16
39 37 35 33 32 32 31 30 29 29 29 29 27 27 26 25 25 24 22 21 19 17 16 16 16 15 14 13 12 10 9 8 7 7 8 8 10 11 13 13 13 13 13 15
43 42 40 37 35 34 34 33 33 34 32 31 31 30 28 27 27 26 25 24 22 21 20 19 20 19 17 14 12 10 10 9 8 8 9 9 10 11 11 12 12 13 14 15
45 44 42 40 37 35 35 35 37 37 36 34 33 31 31 30 28 27 27 27 26 25 24 23 22 20 17 16 14 12 11 11 11 10 11 11 11 11 12 13 14 14 15 15
45 44 42 40 38 38 35 37 38 38 38 37 34 33 32 31 30 30 30 29 29 29 28 27 24 22 19 18 17 16 15 15 14 13 12 12 13 13 14 15 16 17 16 17
45 44 42 40 38 36 35 37 39 40 40 39 37 35 33 32 33 32 32 32 31 31 30 28 27 25 22 20 19 18 18 18 17 16 16 16 16 16 16 17 18 18 19 20
43 43 42 41 39 37 34 34 36 38 40 38 36 36 35 35 35 34 34 33 32 31 30 29 27 24 23 22 21 21 20 20 20 19 18 18 17 17 18 18 19 20 21 22
39 40 39 38 38 36 33 31 33 36 36 36 36 36 36 36 36 35 34 34 33 32 31 30 28 25 25 24 24 23 24 23 22 22 21 21 20 19 20 20 21 22 23 24
37 37 37 37 36 36 32 32 33 34 34 35 35 36 36 36 35 35 34 33 32 31 30 29 28 27 26 25 25 25 25 24 24 23 23 23 22 22 22 22 23 24 25 27
35 36 36 35 35 34 32 32 32 32 32 32 32 33 34 33 33 33 32 31 30 30 29 29 28 27 27 27 26 26 25 25 25 25 25 25 24 24 24 25 26 25 26 28
34 35 35 34 34 33 32 32 32 32 31 31 31 31 31 30 30 30 30 30 29 29 29 29 29 28 27 27 27 27 26 26 26 26 26 25 26 26 25 26 26 26 27 29
34 35 34 33 33 32 30 30 30 30 30 30 30 30 31 29 28 28 28 28 28 27 27 27 27 27 26 26 26 27 27 26 26 26 26 26 27 26 26 26 27 27 27 27
31 32 32 31 29 29 28 28 28 29 29 29 28 27 27 27 26 26 26 26 26 26 25 25 25 25 25 25 26 26 26 25 25 26 27 27 26 26 27 27 26 27 28 28

GEFSCGP_500_meanwind_108.txt.gz
Wind_Speed
18 17 17 18 17 17 16 14 14 14 17 17 16 15 13 13 13 12 13 15 16 18 18 16 15 13 11 9 7 7 8 12 14 15 15 16 16 16 17 16 16 15 15 13
20 18 19 19 18 18 17 16 15 16 18 18 17 16 14 14 14 13 14 15 16 17 18 15 14 13 12 9 8 8 8 10 13 14 15 17 17 17 18 18 17 16 16 14
21 21 22 20 19 18 17 17 17 18 19 19 18 15 14 14 14 13 14 15 15 17 17 16 15 13 12 10 7 7 6 8 11 13 14 15 16 17 17 17 17 17 16 15
23 23 23 21 19 18 17 18 19 19 19 18 18 15 13 14 15 15 14 14 15 16 16 15 15 13 12 10 7 6 5 7 8 10 13 13 15 16 18 18 18 18 17 17
23 24 23 21 20 20 17 19 20 19 19 18 17 15 12 13 14 13 12 13 14 15 15 15 14 13 11 9 7 5 3 6 7 9 10 12 14 17 18 18 18 18 18 17
24 24 23 21 21 20 18 19 20 19 19 17 16 15 12 12 11 11 11 11 12 14 14 13 12 11 10 9 6 3 3 5 5 7 9 11 12 15 17 18 17 18 18 18
25 24 23 22 21 21 19 19 20 19 18 16 15 14 13 12 11 10 9 9 11 13 12 11 11 10 10 8 5 3 3 4 5 6 9 12 13 15 17 17 17 17 18 19
25 24 23 22 20 20 20 19 19 19 17 15 15 13 12 11 10 10 10 10 10 11 10 10 10 10 10 8 6 4 3 4 5 6 8 11 12 13 15 17 16 17 18 19
24 23 23 22 21 21 20 19 19 19 17 16 15 13 12 11 11 11 10 9 10 10 9 9 10 10 10 9 6 4 3 4 5 6 8 10 12 14 16 16 16 17 18 18
26 25 24 23 23 22 21 20 19 19 18 17 15 14 12 12 12 11 10 9 10 9 8 9 10 11 11 9 6 5 5 5 5 7 8 10 11 13 16 16 16 17 18 18
27 26 24 25 24 22 21 21 21 20 20 18 17 14 13 12 12 12 11 10 11 10 10 11 11 11 10 8 5 5 6 6 6 6 8 9 11 13 14 15 15 16 17 18
27 26 25 25 25 25 25 23 21 20 19 19 18 16 14 14 13 13 12 11 11 11 11 11 11 11 10 9 7 5 6 7 7 6 7 9 11 12 13 13 14 15 16 17
26 27 25 25 26 26 26 24 23 22 21 21 20 18 16 15 14 13 13 12 12 13 13 12 11 10 10 10 8 8 7 7 8 8 8 10 11 12 13 14 15 15 15 17
29 28 28 26 25 25 26 25 25 24 24 23 22 20 19 17 16 16 15 14 14 15 14 14 13 12 11 11 11 11 10 9 10 11 11 11 12 13 14 15 15 15 16 17
33 32 30 28 27 28 28 27 27 27 26 25 24 23 21 20 19 18 18 16 15 15 15 15 14 14 14 13 14 13 12 12 11 12 13 13 13 13 14 15 15 16 16 17
36 36 34 32 30 30 31 30 30 30 30 28 27 26 23 23 22 21 19 18 17 16 16 16 16 17 17 16 16 15 14 13 13 13 13 14 15 15 15 15 16 16 16 16
39 39 38 37 35 34 35 33 33 32 32 31 30 29 27 26 25 23 22 20 19 19 20 20 19 18 18 18 17 16 16 15 14 14 14 15 15 15 15 15 15 15 16 17
41 41 41 41 39 40 37 35 34 34 34 33 33 31 30 28 27 26 25 24 22 22 23 22 22 22 21 20 19 18 16 16 15 15 16 16 17 16 16 16 16 17 18 19
41 41 42 43 43 43 40 37 36 36 36 34 34 33 32 31 30 28 26 26 25 24 24 23 23 23 23 22 20 19 18 18 18 18 17 17 18 17 17 17 18 18 18 19
40 41 42 43 44 45 41 39 38 37 37 34 34 33 32 30 29 28 27 27 26 25 25 24 24 25 24 23 22 22 21 21 21 20 20 19 19 18 18 19 19 19 20 21
38 39 40 41 42 44 42 40 39 38 36 33 33 32 31 29 28 27 27 27 26 27 26 25 25 24 24 23 24 23 23 23 23 23 22 22 22 21 22 21 21 21 22 23
36 37 38 39 40 40 40 41 40 38 36 34 33 32 31 30 28 27 27 27 27 26 25 25 24 24 23 24 24 24 23 24 24 25 24 25 26 25 25 24 23 23 23 23
36 36 36 37 38 38 37 38 38 37 35 34 33 32 32 31 30 28 27 26 26 26 25 25 25 24 24 24 24 23 23 24 25 26 27 27 26 25 25 25 25 25 25 25
35 35 35 35 34 35 36 36 35 34 33 33 32 32 32 32 30 29 27 27 27 26 26 26 25 25 25 24 24 24 23 23 25 26 26 26 26 26 25 25 25 26 27 29
34 34 34 34 33 33 34 34 34 33 32 31 30 31 31 31 30 29 28 27 27 27 26 25 24 24 24 24 24 24 24 24 25 25 25 25 26 26 25 25 26 27 27 28
32 32 33 33 33 33 33 33 33 33 32 31 30 29 28 28 28 28 28 28 27 26 26 25 24 24 24 24 25 24 24 24 25 25 25 25 25 25 25 25 25 26 27 28

GEFSCGP_500_meanwind_114.txt.gz
Wind_Speed
16 15 15 14 13 12 12 12 12 13 12 11 11 11 12 13 14 14 14 13 14 14 13 13 12 12 11 10 9 7 7 8 10 13 15 16 18 18 18 18 18 17 16 14
18 17 17 16 15 14 13 13 13 14 13 12 11 12 13 14 14 14 13 13 13 13 14 12 12 11 11 10 9 8 7 7 9 12 14 16 18 17 17 18 18 17 16 15
20 19 19 18 17 16 14 14 14 15 13 12 11 12 13 13 13 13 12 12 12 12 13 13 12 11 11 10 9 8 7 7 8 11 13 16 18 17 16 17 18 17 17 16
22 21 20 20 18 17 16 16 15 14 13 13 11 10 13 12 13 12 11 11 11 11 11 12 12 11 11 10 9 8 7 6 8 11 12 13 15 17 17 17 17 17 17 17
23 22 22 21 20 19 18 17 15 14 13 13 12 11 11 13 12 12 11 10 10 10 10 11 11 11 11 10 9 7 6 6 7 9 12 13 14 16 16 17 18 17 17 17
25 24 22 21 21 20 18 17 15 14 13 13 13 11 11 12 12 11 11 10 10 10 10 10 10 10 10 9 8 6 5 5 6 7 10 11 13 15 15 15 17 17 17 17
25 24 23 22 22 20 18 16 15 14 14 13 14 12 12 12 11 11 11 10 9 10 10 10 10 10 9 9 8 6 5 5 6 7 9 10 12 13 15 16 16 17 17 18
24 24 24 22 21 20 18 17 15 13 12 13 15 12 11 11 11 11 10 10 9 10 10 10 10 9 9 9 8 6 5 5 6 7 9 10 12 13 14 16 17 17 18 18
23 25 24 22 21 21 20 19 17 17 16 14 14 13 12 11 11 11 11 10 10 10 10 10 9 9 9 9 8 7 6 5 6 8 10 11 12 13 14 16 17 18 18 18
23 24 24 23 22 21 20 19 19 17 16 14 14 13 11 11 11 11 11 10 10 11 11 10 10 10 10 9 9 8 7 6 6 8 10 11 12 13 14 16 16 18 18 18
23 23 24 23 22 21 20 20 19 18 18 14 13 13 14 12 11 11 11 11 11 12 12 11 11 11 10 9 9 9 8 7 6 7 9 10 12 12 14 15 16 17 18 18
24 23 24 23 23 22 21 20 20 18 18 16 15 14 16 13 12 11 12 12 12 13 13 12 12 12 10 9 9 9 9 9 8 8 9 10 11 12 13 14 15 16 17 18
27 26 24 23 24 24 23 22 21 20 19 18 15 14 17 14 13 13 12 13 13 14 13 13 13 12 11 10 10 9 9 10 10 10 10 11 12 12 14 15 15 16 18 19
29 28 26 21 20 22 23 23 23 21 19 18 16 16 18 16 15 14 14 14 14 14 13 13 13 13 12 12 12 11 11 11 11 12 12 13 14 14 15 15 16 17 18 19
32 31 29 28 27 25 23 23 24 24 21 19 18 17 17 17 16 16 16 16 16 15 14 14 15 15 14 14 14 14 13 13 13 13 14 14 15 16 16 17 17 17 18 19
34 33 31 30 29 28 27 26 25 25 24 23 21 20 20 19 18 18 17 17 16 15 15 15 16 16 17 17 16 16 15 15 14 15 15 16 16 17 17 18 19 19 20 21
36 34 33 30 30 30 29 28 27 26 25 24 22 22 22 21 21 20 20 19 18 17 17 17 18 19 19 19 19 18 17 16 16 16 17 17 17 18 18 20 21 21 21 21
38 36 34 31 32 32 29 30 28 27 26 26 26 26 25 24 23 23 22 22 21 20 20 21 21 21 21 21 21 20 20 19 19 19 19 19 20 20 20 21 22 22 22 22
39 38 36 35 34 33 33 32 29 29 28 27 27 27 26 25 25 24 23 23 22 23 23 23 23 23 23 23 23 22 22 21 21 21 20 19 20 20 21 22 21 22 23 23
40 39 38 38 36 33 33 33 30 30 30 28 28 28 27 25 26 26 24 24 24 24 24 24 24 24 24 24 24 24 24 23 22 21 21 20 20 20 21 21 22 24 24 24
39 39 39 38 37 35 37 34 30 31 31 29 28 28 28 28 28 27 26 26 25 25 25 25 25 25 25 25 25 25 24 24 23 23 22 22 21 21 22 22 23 23 24 24
37 38 39 38 37 36 38 35 34 32 31 30 29 30 30 29 29 28 27 27 26 26 26 26 26 25 26 25 26 26 26 25 25 24 24 24 24 23 23 24 24 25 26 27
37 38 38 38 38 38 37 36 35 33 33 32 32 31 31 31 31 30 29 28 28 27 27 27 27 26 26 26 27 27 26 26 26 25 25 25 25 25 25 25 26 26 27 27
36 36 37 37 37 37 36 35 34 34 33 33 33 32 32 32 32 32 31 30 29 29 29 29 28 27 27 27 27 27 27 27 27 26 26 26 27 26 26 26 26 27 27 27
35 34 34 35 36 35 35 35 34 34 33 33 33 33 32 32 32 31 31 30 30 30 30 29 29 28 28 28 27 27 27 27 27 27 26 27 26 26 26 26 26 27 28 28
32 32 32 33 34 33 34 33 33 32 32 32 32 33 33 33 32 31 30 31 31 30 30 29 29 28 27 27 27 27 27 26 26 26 26 26 26 25 26 27 27 28 28 28

GEFSCGP_500_meanwind_120.txt.gz
Wind_Speed
13 12 10 9 9 9 9 9 10 11 13 15 12 11 12 15 16 18 18 17 17 17 17 16 15 14 14 14 13 12 10 8 7 7 9 11 13 14 14 14 14 13 13 12
14 12 12 12 12 11 11 11 10 11 14 15 13 11 13 15 17 18 18 17 17 16 17 16 15 14 14 13 12 12 11 9 7 7 7 9 11 14 14 14 13 14 14 13
15 14 15 14 13 12 12 12 11 13 14 13 13 12 14 17 16 18 19 18 17 18 16 14 14 14 13 13 13 13 11 9 7 6 6 8 10 13 15 14 14 14 15 15
18 17 17 16 15 13 13 13 14 15 13 12 11 13 15 18 17 16 17 18 17 17 15 13 14 14 13 14 13 13 11 8 7 6 6 7 9 10 13 14 14 15 15 14
19 18 18 17 16 15 14 15 15 15 14 12 10 12 14 16 17 15 17 18 18 16 15 15 14 14 13 13 13 13 11 9 7 6 6 7 8 9 11 13 14 15 15 14
21 20 20 18 18 17 16 16 15 13 12 12 10 11 12 16 17 18 20 19 18 17 15 14 14 14 13 13 13 12 11 8 6 6 6 7 8 8 9 11 13 14 14 15
22 22 21 20 19 17 16 15 13 12 12 12 11 11 13 18 19 21 21 20 18 16 16 15 14 14 13 13 12 12 11 8 7 6 5 6 7 8 9 10 12 13 14 15
21 21 20 21 19 17 16 15 13 12 12 13 11 11 13 16 19 20 19 19 18 16 16 15 14 14 13 12 12 12 10 8 6 5 6 6 6 7 9 11 12 13 14 15
17 17 19 21 19 19 17 16 14 16 16 16 13 11 16 19 18 17 18 18 18 16 16 14 13 13 12 11 11 11 9 7 6 6 6 7 8 9 9 11 12 13 14 15
22 19 18 22 21 20 18 16 16 17 17 17 15 15 18 19 18 16 16 18 18 16 15 14 14 12 12 12 11 10 9 8 7 7 7 9 9 10 11 11 12 13 14 15
25 25 20 20 22 18 17 18 19 18 18 16 16 16 18 19 19 18 16 18 19 17 16 15 14 14 13 13 12 11 10 9 8 8 8 8 9 10 12 13 13 14 15 16
27 27 25 22 22 20 18 17 17 19 19 18 16 17 19 16 17 18 17 20 20 18 17 16 15 14 14 14 13 12 11 11 10 9 10 9 10 10 11 12 13 14 15 16
28 29 28 24 21 21 19 18 18 18 18 18 16 17 20 21 20 20 21 21 20 19 18 17 17 16 14 14 13 13 12 12 11 11 11 11 11 11 12 12 14 15 15 16
31 31 29 25 20 19 20 20 19 20 20 19 18 19 23 21 20 20 20 20 20 19 18 18 18 17 16 14 14 14 14 13 13 13 13 13 13 13 13 14 14 15 16 16
34 32 31 28 25 22 18 19 19 20 21 21 20 20 23 24 23 23 22 21 21 20 20 19 18 17 17 17 15 15 15 14 14 14 15 14 15 15 15 15 15 15 15 16
36 35 33 31 29 27 23 21 19 20 20 21 22 23 24 26 25 24 23 24 23 22 22 21 20 19 19 19 18 17 17 17 17 16 16 16 16 16 16 16 17 17 16 17
36 36 36 33 28 28 28 25 24 22 21 21 21 24 27 27 28 28 27 25 24 24 24 23 23 22 20 20 20 19 19 19 18 18 17 17 16 17 18 18 18 19 19 19
37 37 36 34 31 31 29 26 26 26 25 24 26 28 29 32 31 27 25 26 26 26 25 25 24 23 22 21 21 21 21 20 20 20 20 19 19 19 19 19 20 20 20 21
38 38 37 35 33 32 28 27 27 27 27 28 28 31 31 33 33 31 29 28 28 27 26 26 26 25 24 23 22 22 22 22 22 22 22 22 21 21 20 20 20 21 21 22
38 39 39 37 34 30 26 26 27 29 30 32 32 33 34 33 34 33 29 28 28 28 28 27 26 26 25 25 24 24 24 24 24 24 23 23 22 22 21 21 21 21 22 23
40 41 40 39 37 33 31 31 31 32 33 33 33 35 35 34 34 32 31 30 29 28 28 27 27 27 26 26 26 25 25 25 25 24 24 24 23 23 23 23 22 22 22 22
36 37 39 39 38 35 35 36 37 37 36 34 34 35 34 34 34 33 32 32 31 30 29 29 29 28 28 27 27 27 26 26 26 26 26 26 25 24 24 23 22 22 22 22
34 34 34 35 36 39 40 40 41 40 39 37 36 35 35 35 35 34 34 33 32 32 31 31 30 30 29 29 29 29 29 28 28 27 27 27 26 25 24 24 24 24 24 24
35 36 35 35 38 40 41 41 43 42 40 39 37 37 36 36 35 35 34 35 35 35 34 33 32 32 32 31 31 30 30 30 29 29 28 27 26 26 26 26 26 25 25 25
38 37 37 38 39 40 40 40 41 41 41 40 39 38 38 38 37 37 36 36 36 36 35 35 34 34 34 33 33 32 31 31 30 30 29 28 27 27 27 27 27 27 26 26
39 40 39 41 41 42 40 38 38 40 41 40 40 39 38 38 38 38 38 38 38 37 37 36 35 35 35 34 33 33 32 31 31 31 30 29 29 28 28 28 28 27 27 26

GEFSCGP_500_meanwind_126.txt.gz
Wind_Speed
11 10 9 10 10 10 9 8 6 4 6 10 12 13 14 16 16 17 18 18 18 17 16 15 13 11 11 11 10 10 9 7 5 4 4 6 8 12 13 13 14 14 12 11
13 12 12 12 11 10 10 10 8 8 9 11 13 13 13 14 15 16 18 18 16 17 16 15 13 11 10 10 10 10 9 7 5 4 3 5 7 10 11 13 14 14 13 12
14 15 15 14 13 11 11 11 11 12 12 14 15 14 13 13 14 15 16 16 16 15 15 14 13 12 10 10 10 10 8 7 6 5 2 4 7 9 10 12 14 14 13 13
16 17 17 15 13 13 12 12 12 13 13 13 15 15 14 14 14 14 15 16 15 15 15 14 13 12 10 9 9 10 9 7 6 4 3 3 7 9 10 12 13 13 13 12
17 18 18 16 14 14 13 14 14 14 14 13 13 15 14 14 13 14 15 15 16 16 15 14 13 12 10 9 9 10 9 7 6 5 4 5 7 9 10 10 11 12 12 12
19 19 18 16 16 16 15 15 15 15 14 12 13 15 14 13 13 12 14 15 16 16 15 14 13 12 11 10 10 10 8 7 6 5 4 5 6 8 9 9 10 11 12 13
21 19 18 17 17 16 16 16 16 15 14 12 12 13 12 12 13 13 14 15 16 15 15 15 13 11 11 10 9 8 8 7 6 5 4 5 6 8 9 9 9 11 11 12
22 19 17 17 15 15 16 16 16 16 14 13 13 13 13 12 13 13 13 13 13 13 14 14 12 10 10 10 9 8 7 7 5 4 3 4 5 7 8 9 9 10 11 12
22 19 19 19 17 16 15 15 16 17 16 17 16 14 14 13 14 13 14 15 14 14 13 12 11 9 10 9 9 8 7 6 5 4 3 5 5 6 7 8 9 10 11 12
22 21 21 20 20 17 14 14 17 18 18 18 17 16 14 15 15 15 15 15 14 15 14 11 9 8 9 9 9 9 8 7 5 4 3 5 6 7 8 9 10 10 11 12
23 23 22 22 21 17 15 15 17 18 19 19 18 17 17 17 17 16 15 15 14 15 15 12 9 8 9 9 9 10 9 8 6 5 4 5 6 7 8 8 9 10 12 13
24 25 25 24 22 21 19 17 17 19 19 20 21 19 18 18 18 17 15 16 16 14 13 13 10 10 9 9 9 9 9 8 7 6 6 6 6 7 8 9 10 11 12 13
25 28 27 27 26 25 22 20 19 19 20 21 22 19 19 19 18 18 18 18 15 13 14 13 12 11 10 10 10 10 9 9 8 7 7 7 8 8 9 9 10 11 12 12
29 30 29 28 26 26 26 23 21 21 22 22 21 19 19 19 20 19 20 20 18 16 15 14 13 12 11 12 11 10 10 10 9 8 8 9 9 9 10 10 11 11 12 12
33 32 31 29 29 29 29 28 25 24 23 22 21 21 21 21 21 21 22 22 19 18 18 16 15 14 14 13 13 12 11 11 10 10 10 10 10 10 10 11 12 13 13 14
37 36 34 32 31 31 31 30 29 27 24 23 22 22 22 24 24 24 25 24 22 21 21 18 16 16 16 15 14 14 13 13 12 12 12 11 11 11 12 12 13 14 14 15
42 40 39 36 34 33 34 31 30 29 27 26 25 23 23 26 27 27 26 25 25 24 23 22 18 17 16 16 15 15 14 14 14 14 14 13 13 13 13 14 14 14 15 16
46 44 42 40 37 39 33 32 33 33 31 30 29 27 26 26 27 27 27 27 26 25 24 22 20 19 17 17 17 16 15 15 15 15 15 15 15 15 15 16 15 15 16 18
50 47 45 44 42 39 34 32 34 36 36 34 32 31 30 29 29 28 28 28 28 26 25 23 22 21 19 19 18 18 17 17 16 16 16 16 16 17 17 17 16 17 17 18
51 50 48 45 43 40 34 33 34 36 38 37 36 34 33 32 31 30 29 29 28 28 27 26 24 22 21 21 21 20 19 18 18 18 17 17 17 18 18 19 18 18 18 19
50 50 49 46 44 41 36 34 34 37 38 37 36 36 35 34 33 32 31 30 30 29 28 27 26 24 22 22 22 21 21 20 20 19 19 19 19 19 19 19 19 19 20 20
48 48 48 45 44 41 37 36 37 38 37 37 36 36 35 34 34 33 33 32 31 29 29 28 27 25 24 24 24 24 23 22 22 22 21 22 21 21 21 21 21 20 21 21
44 45 45 44 43 40 37 37 38 38 39 38 37 37 37 36 36 35 34 33 32 31 31 31 29 28 28 27 26 25 25 25 25 24 24 24 23 23 23 22 22 22 23 23
43 43 42 42 42 40 37 36 37 39 39 39 38 38 38 38 38 37 37 36 35 34 33 33 32 32 31 30 29 28 27 27 27 27 26 25 25 24 24 23 23 24 24 24
43 42 42 42 40 39 37 36 36 37 38 39 39 40 40 39 39 38 38 38 37 36 36 35 34 33 33 31 30 30 29 29 30 29 28 27 27 26 26 25 25 25 25 25
42 42 42 41 40 39 37 36 36 36 37 38 38 39 39 39 39 38 38 38 39 38 37 35 34 34 33 33 32 32 31 32 31 31 30 29 28 28 27 27 27 27 27 27

GEFSCGP_500_meanwind_132.txt.gz
Wind_Speed
13 12 12 12 12 12 11 11 11 12 12 11 11 11 11 11 10 10 11 12 14 15 15 14 12 10 10 10 9 9 8 6 4 4 5 6 9 10 11 12 14 14 13 13
16 15 14 14 13 13 13 13 13 14 15 14 13 12 12 12 11 11 11 12 13 14 15 14 13 11 10 10 9 10 8 7 4 3 5 6 8 10 11 11 13 14 14 14
18 18 16 15 15 14 14 14 15 16 16 16 14 13 13 13 12 12 12 13 13 14 14 14 13 11 10 10 9 9 8 7 5 4 4 5 7 10 12 12 14 14 14 14
20 19 17 16 16 16 16 16 16 16 16 16 15 14 13 14 12 12 11 12 12 13 14 14 13 11 10 9 9 9 8 7 6 5 4 5 7 9 11 13 14 14 15 15
21 21 19 17 17 18 17 18 17 17 17 16 16 15 14 14 12 11 10 11 11 12 14 13 12 11 10 9 8 8 8 7 5 5 5 5 6 9 10 13 14 15 16 16
23 23 21 20 20 19 19 19 18 18 17 16 16 16 14 13 11 10 10 10 11 12 13 14 12 11 10 9 8 8 7 7 6 5 5 5 6 8 9 12 14 14 15 15
24 24 22 22 21 20 20 19 19 19 18 17 17 16 15 13 12 10 10 10 11 12 13 14 13 12 11 9 9 8 7 7 7 5 5 5 6 7 8 10 13 14 14 15
26 25 24 23 22 22 21 20 20 19 18 17 17 17 14 13 11 11 10 10 11 13 14 14 14 12 11 10 10 9 8 8 7 6 5 5 6 7 8 10 12 13 13 14
28 26 26 25 24 23 22 22 21 20 19 18 17 17 14 13 12 12 11 10 11 12 13 13 14 13 11 11 10 10 9 9 7 7 6 6 6 6 7 9 11 12 13 12
30 29 28 27 26 25 24 22 21 20 19 19 17 16 15 13 12 12 11 11 12 12 13 13 13 13 11 11 10 10 8 7 7 7 7 6 6 6 7 8 11 12 12 13
32 31 29 29 27 25 24 23 22 21 20 19 18 15 14 14 13 12 12 12 13 12 13 13 13 12 11 10 9 9 8 7 7 6 6 6 7 7 7 8 10 11 13 13
33 33 31 30 29 28 26 24 23 21 19 19 18 15 14 14 14 13 12 13 13 12 12 13 13 12 11 10 9 8 8 7 6 6 6 6 7 8 8 9 10 11 12 13
34 34 32 31 31 29 28 26 24 23 22 20 19 16 14 14 13 13 13 13 13 12 13 13 13 13 12 11 10 9 9 8 7 6 6 7 8 8 9 10 10 12 12 13
35 34 32 30 28 28 28 27 26 25 24 22 20 18 15 14 14 14 14 14 13 13 14 14 14 14 13 12 11 9 9 9 8 8 7 8 8 9 9 10 11 13 14 15
35 34 32 30 29 29 29 28 27 27 26 24 22 20 18 16 16 16 15 15 15 15 16 16 15 14 14 12 11 11 10 10 10 10 9 10 10 10 10 11 12 13 14 15
37 35 33 31 30 30 31 30 29 29 28 27 24 22 20 19 18 17 17 17 16 17 17 17 17 15 15 14 12 12 12 12 12 11 11 12 12 12 12 13 13 14 15 16
39 37 34 33 31 31 33 31 30 30 29 28 26 23 21 21 20 19 19 18 18 18 18 18 18 17 16 15 15 14 15 14 14 14 13 14 14 14 14 15 16 16 17 18
42 39 38 35 33 35 32 31 31 30 29 29 28 26 25 24 23 22 21 21 21 20 20 20 20 18 17 16 15 15 16 15 15 15 16 16 16 16 16 16 16 17 17 18
45 43 41 39 37 36 34 33 32 31 31 30 30 30 28 27 26 25 24 24 23 22 22 22 21 20 19 18 17 17 17 18 17 17 17 18 18 18 17 17 17 18 19 19
48 46 45 44 42 40 37 35 34 33 33 31 31 32 31 29 28 27 27 26 25 24 24 24 23 22 21 20 20 20 20 20 19 18 18 18 18 19 19 18 19 20 20 20
51 50 49 47 46 45 42 40 38 38 36 33 33 33 32 32 30 28 28 28 27 26 25 25 25 24 23 22 21 22 21 21 20 20 20 19 20 19 19 20 20 21 22 22
53 53 52 51 50 49 45 44 42 41 38 37 36 35 34 33 32 31 30 30 29 28 28 28 27 26 25 25 24 24 23 23 22 22 22 22 21 21 21 21 22 22 23 24
53 53 54 54 52 50 48 47 45 43 42 39 38 37 37 35 33 33 33 32 31 31 30 30 30 29 28 28 27 27 27 26 25 25 24 24 23 23 24 24 24 24 25 25
52 52 52 53 53 51 49 47 46 44 42 40 39 38 37 36 35 35 35 34 33 32 32 33 33 32 31 30 30 29 28 28 28 27 26 25 26 26 26 26 26 26 26 26
49 50 51 51 51 51 49 47 46 44 42 41 39 37 37 36 36 37 37 37 36 36 35 34 33 33 31 31 30 29 29 29 30 29 28 28 28 28 28 28 28 28 28 28
47 47 47 47 47 48 47 46 44 43 41 40 38 38 37 36 36 37 37 38 38 38 37 35 34 33 32 31 31 31 30 30 30 30 30 30 30 30 30 30 30 30 30 30

GEFSCGP_500_meanwind_138.txt.gz
Wind_Speed
11 10 9 7 6 5 4 5 6 7 8 8 8 9 10 10 10 10 9 10 11 12 13 13 13 13 11 10 9 9 9 8 6 5 6 8 8 10 11 11 11 12 12 13
14 13 11 10 8 7 6 6 8 9 9 9 9 9 10 10 10 10 9 10 10 11 13 13 13 13 12 10 10 10 9 9 7 6 5 7 8 9 10 11 12 12 13 14
17 16 14 12 10 9 8 8 9 10 9 10 9 10 11 11 10 10 10 10 10 11 12 13 13 13 12 11 10 9 9 9 7 7 5 6 7 8 10 11 13 13 13 14
19 17 16 14 13 11 11 11 10 10 9 10 9 8 11 11 11 11 10 11 11 11 12 12 13 13 13 11 10 9 9 8 7 7 5 5 5 8 10 12 13 14 14 15
21 19 18 17 15 14 13 12 12 11 11 11 11 8 10 11 11 10 10 11 11 11 11 12 13 13 12 11 11 10 9 9 8 7 6 6 7 8 10 11 12 14 14 15
22 20 19 18 17 16 14 14 13 12 12 12 11 10 10 10 10 11 11 11 11 11 11 12 13 13 12 12 11 10 10 10 9 7 7 7 7 8 10 10 12 13 14 15
23 22 21 20 18 17 15 14 13 12 12 12 13 11 11 11 11 11 11 10 11 11 12 12 12 12 13 12 11 11 10 9 8 7 7 7 8 8 10 10 11 12 14 16
25 24 23 21 20 19 17 16 14 12 11 13 14 12 12 12 11 10 10 11 11 11 11 12 12 12 12 12 11 11 10 9 8 7 7 8 9 9 9 10 10 12 13 15
27 27 25 24 23 21 19 17 16 16 15 13 14 13 12 12 11 10 10 10 11 11 12 12 12 12 13 12 11 10 10 10 9 8 8 8 8 9 9 10 10 12 13 14
30 29 28 26 25 24 22 20 19 17 15 13 14 12 11 11 11 10 10 10 11 12 12 11 12 12 12 12 11 10 10 10 10 9 8 7 8 8 9 10 10 11 12 13
32 31 30 28 27 25 23 22 20 19 17 14 12 12 12 11 10 9 9 10 10 11 11 12 12 12 12 12 11 11 10 10 10 9 8 9 8 8 9 9 10 10 11 12
32 31 31 29 28 27 25 23 22 21 19 16 14 13 14 11 10 10 9 10 10 11 12 12 12 12 12 12 11 11 10 10 9 9 8 8 8 9 9 9 9 10 11 12
33 32 30 30 29 27 26 24 23 21 21 18 15 13 14 12 11 10 10 10 11 11 12 12 12 12 12 12 12 11 10 10 9 9 9 8 8 9 9 10 10 10 11 12
33 32 30 26 25 26 25 24 23 23 21 20 16 15 15 13 12 11 11 11 11 11 11 12 12 12 12 13 12 12 11 10 10 10 10 9 10 10 10 10 11 12 12 13
35 33 31 29 29 28 26 25 24 24 22 21 18 17 16 15 14 13 13 12 12 12 12 12 13 13 13 13 13 12 12 12 11 10 10 10 10 11 11 12 12 13 14 15
37 35 33 31 30 29 29 28 26 25 24 22 21 20 19 17 16 15 15 14 13 13 14 14 14 14 14 14 14 14 14 13 12 12 12 12 11 11 12 12 13 14 15 16
40 37 35 32 31 31 32 29 27 26 24 23 22 21 21 19 18 17 16 15 14 15 16 16 17 16 17 17 16 15 15 14 14 13 13 13 14 14 14 15 15 16 17 17
42 40 37 34 34 34 31 30 29 27 26 25 24 24 23 21 20 19 18 18 17 17 18 19 19 18 18 19 19 18 17 16 15 15 15 15 16 16 16 17 18 18 18 18
44 42 40 38 36 35 35 32 29 28 28 27 26 25 24 23 22 21 20 20 20 20 20 20 20 20 20 20 20 19 19 18 17 17 17 17 17 17 18 18 19 19 20 20
46 44 43 42 38 34 35 34 31 30 31 29 27 26 25 24 23 24 23 23 23 23 23 22 22 23 23 22 22 22 21 21 20 20 19 19 19 18 19 19 20 20 21 22
48 47 45 43 41 37 39 36 33 33 32 31 30 29 28 28 27 27 26 26 26 26 25 25 25 25 25 25 25 24 24 24 23 22 21 21 21 21 21 21 21 21 22 23
48 47 47 45 43 40 42 39 37 36 35 33 32 32 31 30 30 29 29 29 28 28 28 28 28 28 27 27 28 27 27 26 26 24 23 23 24 23 23 23 23 23 23 24
49 49 48 47 45 44 43 41 38 37 37 36 35 34 33 33 32 31 31 30 30 30 30 30 30 30 30 30 30 30 28 29 28 27 26 26 26 26 25 25 24 24 25 25
49 50 50 49 48 46 44 42 41 39 38 38 37 37 36 35 34 33 32 32 32 32 32 32 32 32 32 33 33 32 31 31 31 30 29 29 29 28 27 27 27 26 27 27
48 48 49 49 49 47 46 45 43 42 41 40 39 38 37 37 36 35 34 34 34 34 33 33 33 33 33 33 34 35 34 33 33 32 31 31 31 30 30 29 28 28 29 29
44 45 47 49 49 48 47 46 45 44 43 42 41 39 39 37 36 36 36 35 35 35 34 34 35 34 34 34 34 35 34 33 33 32 31 31 31 31 31 31 31 30 31 32

GEFSCGP_500_meanwind_144.txt.gz
Wind_Speed
9 8 5 2 6 8 9 8 5 7 10 7 7 8 10 13 13 14 16 16 16 15 15 15 16 17 17 17 16 13 11 11 10 9 7 5 5 6 8 9 10 10 10 11
10 7 8 10 11 9 8 6 5 7 10 7 6 8 9 12 15 15 16 16 15 15 15 15 16 17 17 17 16 14 12 11 11 10 8 6 6 6 7 8 10 11 11 11
12 10 12 12 11 9 7 6 7 8 9 7 9 11 13 13 15 16 16 15 15 15 15 15 15 16 17 17 16 15 13 12 11 11 10 8 7 7 7 8 9 11 11 11
15 15 15 13 12 10 7 8 10 9 7 5 5 10 15 14 16 17 17 16 15 15 16 16 15 16 17 17 17 15 14 13 12 11 10 9 8 7 8 9 9 10 11 12
17 17 16 14 13 12 11 11 10 8 7 6 5 8 12 14 15 17 16 15 15 15 16 16 15 15 16 17 17 16 15 14 13 12 10 9 8 7 7 8 9 9 11 12
19 18 18 16 15 14 12 11 9 7 7 7 7 8 11 13 14 16 17 16 15 15 16 16 15 15 16 17 16 16 15 14 14 13 11 9 8 8 7 8 9 10 10 11
21 20 19 17 16 15 13 11 7 7 10 10 8 8 12 16 17 18 18 17 16 15 15 14 13 14 15 16 16 16 15 14 14 13 12 10 10 9 8 9 9 10 10 11
21 21 20 19 17 16 14 12 9 7 8 11 10 8 14 16 17 17 16 16 15 14 14 12 13 14 16 16 17 16 16 15 14 13 12 11 10 10 9 10 9 9 10 11
18 18 19 22 20 19 17 15 12 13 12 11 11 12 18 19 17 16 15 15 14 15 14 12 13 14 15 16 17 16 16 16 15 13 12 12 11 10 10 10 9 9 9 10
24 19 17 22 23 22 20 17 15 16 15 14 12 15 19 19 16 17 17 15 15 15 13 13 14 15 16 16 16 16 16 16 15 14 13 12 12 11 10 10 9 8 8 9
29 27 22 23 26 22 21 21 19 17 16 15 13 16 18 17 18 19 19 17 15 15 15 14 14 15 16 16 16 17 16 16 15 14 13 13 12 11 10 10 9 9 8 8
31 31 29 25 26 24 22 22 20 21 19 18 15 15 19 17 17 19 19 18 16 15 15 15 14 15 16 16 16 17 17 16 15 15 14 14 13 11 10 10 10 9 9 9
33 34 33 29 25 25 23 23 22 21 21 19 16 16 20 19 19 20 19 19 18 16 16 16 15 15 16 16 17 17 17 16 16 15 15 14 14 12 11 11 10 10 11 11
36 37 35 31 25 22 24 22 23 24 23 21 18 18 20 20 21 22 20 19 18 18 16 17 17 17 16 16 17 17 17 17 16 16 16 15 14 13 12 12 11 12 12 12
38 37 36 33 29 23 22 23 23 24 24 23 20 20 19 21 23 23 22 19 19 19 18 18 17 17 17 17 17 18 18 18 17 17 17 16 15 14 14 14 13 14 14 14
40 39 37 36 34 30 26 23 22 22 23 23 23 21 19 22 22 23 23 21 21 20 20 19 17 17 17 18 18 18 18 18 18 18 18 18 17 16 16 16 15 16 15 15
41 40 38 36 33 32 33 29 24 23 23 22 23 23 23 24 24 25 24 23 23 22 21 20 19 18 19 19 19 19 19 19 19 19 19 19 18 18 18 17 17 17 17 17
40 40 39 36 34 35 33 28 27 26 25 24 25 24 25 27 28 28 27 26 25 24 23 21 21 21 21 21 21 21 21 21 21 21 20 20 20 20 19 19 19 19 19 19
41 41 40 38 36 36 32 27 26 26 27 26 26 26 27 28 29 29 28 27 26 25 25 24 23 23 23 23 23 23 22 22 22 22 22 22 22 22 22 21 21 20 20 20
43 42 41 40 38 34 30 26 26 27 30 29 29 30 29 29 30 30 29 29 28 26 26 26 26 26 26 25 25 25 24 24 24 24 24 24 24 24 24 23 22 22 21 21
45 45 44 42 41 37 32 29 28 29 31 31 32 33 33 34 34 33 32 31 29 28 28 29 28 28 28 28 27 27 26 26 27 26 26 26 26 26 26 25 25 24 23 23
42 44 45 44 43 39 34 34 35 35 35 34 34 34 35 35 34 34 34 33 32 32 31 31 31 31 31 30 30 29 29 29 29 29 29 29 29 28 28 27 26 26 26 26
38 38 38 41 42 41 39 40 41 41 40 38 36 36 35 35 35 36 36 35 35 34 34 34 33 33 33 32 32 31 31 31 31 31 31 31 31 31 30 29 29 29 29 28
38 38 38 39 40 41 42 43 44 44 43 41 40 40 39 39 38 38 38 38 37 37 36 36 35 34 34 33 33 33 33 33 33 33 33 32 32 32 31 31 31 31 31 31
41 41 41 42 42 43 46 47 48 47 45 43 43 42 42 41 41 40 39 39 39 38 38 37 37 36 35 35 34 34 34 34 34 34 33 33 33 33 33 33 33 33 33 33
42 42 42 43 45 45 45 46 47 47 47 46 45 44 44 43 43 42 41 41 40 39 39 38 38 37 37 36 36 36 36 36 36 36 35 34 34 34 34 34 34 34 34 35

GEFSCGP_500_meanwind_150.txt.gz
Wind_Speed
13 13 12 12 10 7 6 4 1 2 5 7 9 10 11 14 16 18 19 20 19 17 15 15 15 14 14 14 13 12 11 10 10 9 6 4 2 2 4 6 7 8 8 9
14 13 14 14 12 10 8 7 6 5 6 6 7 8 9 12 14 16 18 19 19 17 16 15 15 15 14 14 13 13 12 11 10 9 7 5 3 3 3 4 6 7 8 8
16 16 15 14 12 11 10 10 10 10 9 9 7 7 8 10 12 15 17 18 18 17 16 15 15 15 14 13 13 13 12 11 10 9 8 7 5 4 4 5 6 7 8 9
18 17 16 14 12 11 12 13 13 12 11 10 9 8 7 9 11 14 16 17 18 17 17 15 14 14 14 13 13 13 13 12 11 10 8 7 6 5 5 5 6 8 9 10
20 19 17 15 13 13 13 13 12 10 10 9 9 9 7 9 10 13 15 17 17 17 17 16 15 14 13 13 13 13 13 13 12 11 10 8 7 5 6 6 7 8 10 10
21 21 19 16 15 14 14 13 12 10 8 6 7 8 8 10 11 12 15 17 17 17 17 16 14 13 13 13 13 14 13 12 12 11 10 9 8 6 5 5 6 7 8 9
22 21 19 17 16 15 15 14 13 12 9 7 7 8 8 9 9 12 15 17 17 16 16 14 13 13 12 12 12 13 13 13 12 11 11 10 8 7 6 5 5 7 8 9
24 22 20 17 15 15 15 15 15 14 12 11 9 9 9 9 9 12 15 17 17 15 14 13 14 13 12 12 12 13 13 13 13 12 12 10 9 7 6 6 6 7 7 8
24 22 21 20 17 16 15 15 15 15 14 13 11 10 10 10 11 13 15 17 17 16 15 14 13 14 13 12 12 13 13 13 13 13 12 11 10 9 7 6 6 7 8 8
26 25 24 23 21 19 17 16 17 17 17 16 14 12 10 11 12 14 15 17 17 16 15 13 13 13 13 12 12 12 13 13 13 13 12 11 10 9 8 7 6 6 7 7
28 28 26 26 25 21 18 18 18 19 19 18 18 16 15 15 16 16 16 17 16 16 15 14 13 13 12 12 12 12 13 13 13 13 12 12 11 9 9 9 7 6 7 7
29 29 29 28 25 23 21 19 18 20 19 20 21 19 18 19 19 19 18 18 17 16 16 15 13 13 13 13 12 12 13 13 13 13 13 12 11 10 9 9 8 7 8 8
30 32 32 31 29 27 25 22 19 19 20 22 23 22 21 22 21 21 20 19 18 17 16 15 14 14 14 13 13 12 13 13 14 14 14 13 12 11 11 10 9 9 9 10
32 34 34 33 30 29 27 24 20 20 22 22 22 22 22 23 23 22 21 21 19 18 16 16 15 14 14 14 13 13 13 14 14 15 14 14 14 13 13 12 11 10 11 12
35 36 36 34 33 33 31 28 25 23 22 22 21 22 22 23 23 23 23 22 21 19 18 16 16 15 14 14 15 15 14 15 15 15 15 15 15 14 14 14 13 13 13 13
39 39 38 36 35 35 35 32 29 26 24 23 22 21 22 25 27 28 27 25 23 21 19 18 17 16 16 16 16 16 16 16 17 17 16 16 15 15 15 15 15 14 13 14
41 40 39 38 36 36 37 34 32 29 27 26 25 23 23 26 28 29 29 28 25 24 22 19 18 18 18 18 18 18 18 18 18 18 18 17 17 17 17 16 16 16 15 15
45 43 41 40 38 39 36 34 34 33 31 29 28 27 25 27 29 29 30 29 27 25 23 22 20 20 20 20 20 20 20 20 19 19 19 19 19 18 18 18 18 17 17 17
46 45 44 42 41 38 35 34 36 36 35 33 33 30 29 29 30 31 31 29 28 26 27 25 23 22 22 22 23 22 22 21 21 21 22 21 21 21 20 20 20 20 19 19
48 47 45 44 43 41 37 35 37 39 39 37 36 35 33 32 32 32 31 30 28 28 29 28 26 25 24 25 25 25 24 24 23 24 24 24 24 24 23 22 22 21 21 21
51 49 48 47 46 43 39 38 38 40 41 39 39 37 35 34 33 33 33 33 31 31 31 30 30 28 27 27 27 27 27 27 26 26 26 26 26 25 24 24 24 24 24 23
52 52 50 49 47 44 39 38 40 41 41 41 40 39 38 36 36 36 34 34 34 34 34 33 32 30 29 29 30 29 29 29 29 29 29 28 28 27 27 26 26 26 26 26
50 50 49 48 46 43 41 41 41 42 42 42 41 41 40 38 37 36 36 37 36 36 36 36 34 33 32 32 32 31 31 32 32 32 31 30 30 30 30 29 29 29 29 28
47 47 47 47 46 45 44 42 42 43 43 42 43 43 42 41 40 39 39 39 39 39 39 39 37 36 35 35 35 34 34 34 34 33 33 32 32 32 32 32 32 32 32 31
46 46 45 45 45 44 44 43 42 43 43 43 42 43 43 43 42 42 42 42 42 42 42 41 40 39 39 39 39 37 36 36 35 35 34 34 34 34 34 34 34 34 34 33
42 43 43 44 45 44 43 42 42 42 42 42 42 43 43 44 43 42 43 43 44 44 44 44 43 42 42 40 40 39 38 38 37 36 36 36 35 36 36 35 35 35 35 34

GEFSCGP_500_meanwind_156.txt.gz
Wind_Speed
15 15 14 13 12 11 9 7 5 5 5 5 5 7 8 10 11 13 14 16 18 19 18 16 16 15 14 13 12 12 11 10 8 8 7 6 5 3 3 4 5 7 8 8
17 16 16 15 14 13 11 10 8 7 6 5 5 6 7 8 9 11 13 15 16 17 18 17 16 15 14 13 12 12 12 10 9 8 8 6 5 3 3 4 5 6 8 9
18 19 18 17 16 15 13 12 11 10 7 6 5 5 6 7 8 10 12 13 15 15 16 16 15 15 14 14 13 12 12 11 10 9 8 7 5 5 5 6 7 8 9 10
21 20 19 18 17 16 15 14 14 12 10 9 7 6 5 5 7 10 11 12 13 14 14 14 15 15 14 14 14 14 13 12 11 11 10 8 7 6 6 6 7 9 9 10
23 22 20 18 18 17 16 15 15 14 12 10 9 7 5 5 6 8 10 11 12 13 14 14 14 13 13 14 14 14 14 13 12 11 10 10 9 7 6 6 7 8 9 10
25 23 21 20 19 18 17 17 16 15 14 12 11 8 5 5 6 7 8 10 11 12 14 13 13 13 14 14 14 14 14 13 12 11 11 11 10 9 7 6 7 7 8 10
26 25 23 21 20 19 18 18 17 16 16 14 12 10 8 7 7 7 7 9 10 12 13 14 13 13 13 14 14 13 13 13 12 11 11 12 12 12 9 7 7 7 8 9
28 26 25 23 22 21 21 19 18 18 17 16 15 13 10 10 9 8 8 9 10 12 14 14 13 12 12 13 13 14 13 13 13 12 12 11 11 11 11 10 8 7 8 9
30 28 26 25 24 23 22 21 20 20 19 18 17 15 13 11 10 9 9 10 11 12 13 14 14 12 12 13 14 14 13 12 12 13 12 12 11 12 11 11 9 8 8 8
32 31 29 28 27 26 25 23 22 21 21 20 18 17 14 13 12 11 11 12 12 12 13 14 14 13 13 14 13 13 13 13 12 12 13 13 12 12 12 11 10 8 8 9
34 33 31 31 30 28 27 26 25 23 22 21 20 18 16 15 15 14 14 14 14 13 13 14 14 13 14 14 13 13 13 13 13 13 13 13 13 13 12 11 10 10 9 9
36 36 34 32 32 31 29 27 26 25 24 23 22 19 17 17 17 16 15 15 14 14 14 14 14 13 14 14 14 13 13 13 13 14 14 14 14 13 13 12 11 11 11 11
37 37 36 35 34 33 32 29 28 26 26 25 24 20 18 19 19 18 17 16 15 15 16 15 14 14 14 14 14 13 13 13 13 14 14 14 15 15 14 13 13 13 12 12
37 38 37 35 33 33 32 30 29 28 28 26 24 21 19 19 19 18 17 17 16 16 15 15 15 15 15 15 15 14 14 14 15 15 16 16 16 16 16 16 15 14 14 14
38 38 37 36 34 34 33 32 32 31 29 28 25 23 20 20 19 19 18 18 18 17 16 16 17 16 15 16 15 15 15 15 16 16 17 17 17 17 18 17 17 16 16 16
39 39 38 37 36 35 35 34 33 32 31 30 27 26 23 21 20 20 19 19 18 18 18 18 18 18 17 16 16 16 16 16 16 17 17 18 18 18 18 18 18 19 18 17
40 40 39 38 36 36 38 36 35 34 33 32 30 27 25 24 23 22 21 20 19 19 19 20 20 19 19 18 17 17 18 17 17 18 18 19 19 19 20 20 20 20 20 19
41 40 40 39 37 39 37 35 36 35 34 34 33 31 29 27 26 24 23 22 21 21 21 21 20 21 21 20 19 19 20 20 20 21 21 21 21 21 21 21 21 21 20 19
42 41 40 40 39 39 38 36 36 36 36 35 35 33 32 30 29 27 25 24 24 23 23 23 23 23 22 22 22 22 22 22 23 23 23 23 23 24 23 22 23 22 21 21
44 43 42 41 41 40 39 37 36 36 36 36 36 34 33 32 31 28 27 26 26 26 27 27 26 26 25 24 24 25 26 25 25 25 25 25 25 25 25 25 25 25 24 23
46 45 44 43 43 42 40 39 38 38 38 36 37 36 35 34 33 32 31 29 29 28 28 28 28 29 28 27 28 29 28 28 28 27 28 28 28 28 27 27 27 27 26 25
48 48 47 46 45 44 43 42 41 40 39 39 38 37 36 35 35 34 33 32 31 31 31 31 30 31 32 31 31 32 32 31 31 30 31 30 31 31 31 30 29 28 28 27
49 49 49 49 47 46 45 45 44 43 41 40 39 38 37 36 36 35 35 35 35 35 34 34 34 34 35 35 35 36 35 35 35 34 34 34 34 34 34 33 32 29 28 29
50 50 50 51 50 49 47 46 45 45 44 43 42 40 39 39 38 38 38 38 38 38 37 37 37 37 37 38 38 38 39 40 38 37 37 37 36 35 35 35 33 31 30 31
50 49 50 50 51 50 49 48 47 46 46 45 43 42 42 41 41 41 40 40 40 40 39 40 40 40 40 41 41 42 42 42 41 40 39 38 37 36 35 34 33 32 32 33
47 48 48 49 49 49 49 48 46 46 45 44 43 43 42 42 42 42 42 42 41 41 41 41 41 41 41 42 42 43 43 43 43 41 40 39 38 37 36 34 34 34 34 35

GEFSCGP_500_meanwind_162.txt.gz
Wind_Speed
15 14 13 12 10 9 7 5 4 2 0 2 3 4 5 7 8 10 11 12 13 14 14 13 12 12 12 12 12 13 12 11 10 8 7 7 5 3 3 4 5 6 7 8
17 16 15 13 11 10 8 6 5 3 2 2 2 3 4 6 7 8 10 11 12 13 13 13 12 12 12 12 12 13 13 12 11 9 8 8 7 5 4 4 5 7 8 8
20 19 17 14 12 11 10 9 7 6 3 3 2 4 4 4 5 7 8 10 11 12 12 12 12 12 11 12 12 12 12 12 11 10 9 8 7 7 5 4 4 6 8 8
23 21 18 16 14 12 12 11 10 8 5 5 3 3 5 4 4 6 7 9 10 11 11 12 12 12 11 12 12 12 12 12 11 9 10 9 8 8 6 4 4 5 6 7
24 22 20 18 16 15 15 13 11 10 8 7 6 4 6 5 4 5 7 8 8 9 11 11 12 12 12 11 12 12 12 12 11 10 10 10 9 9 7 5 5 4 5 6
26 23 22 21 18 17 16 14 13 12 10 10 8 6 6 6 4 4 5 6 7 9 10 11 11 12 12 11 11 12 13 13 11 10 10 9 10 9 8 7 6 6 6 7
26 25 24 22 21 19 17 16 14 12 11 11 10 8 8 8 6 5 6 6 7 9 9 10 11 11 11 10 11 12 12 13 12 10 10 9 9 9 9 9 8 7 7 7
28 27 26 24 23 22 20 18 16 13 12 12 12 10 10 9 8 7 7 7 8 9 9 10 10 10 10 11 11 11 11 12 12 11 10 10 9 10 10 10 9 8 7 7
30 29 28 26 25 24 23 21 19 18 16 14 13 12 11 10 10 9 8 8 8 9 10 9 10 10 10 11 11 11 11 11 12 12 11 11 9 10 10 10 10 9 9 9
32 31 30 28 27 27 26 24 23 20 18 16 15 13 12 12 11 11 10 10 9 9 10 10 10 11 10 10 11 11 11 12 12 12 11 11 10 10 10 10 10 10 11 10
33 32 31 30 30 29 28 27 25 23 21 17 14 14 14 13 13 12 12 12 11 11 11 11 11 11 11 10 10 11 11 12 12 12 12 12 11 10 10 11 11 11 11 11
35 34 32 32 32 31 30 29 27 25 24 21 18 16 16 15 14 14 14 14 13 13 12 12 11 11 11 11 11 11 11 12 12 12 12 12 12 12 12 12 12 12 12 12
36 36 35 33 33 33 32 30 28 26 25 24 20 17 18 17 16 15 15 15 15 14 13 13 12 11 12 12 12 12 12 12 12 12 13 13 13 13 14 14 14 14 13 13
38 37 36 32 30 30 32 31 30 28 27 25 23 20 20 18 18 17 16 16 15 15 15 14 13 13 13 13 13 13 13 13 13 13 14 14 14 15 15 15 16 15 15 15
39 39 38 36 34 33 33 32 31 31 29 27 25 23 21 20 19 18 17 16 16 16 16 16 15 15 15 15 15 14 14 14 15 15 15 16 16 16 16 17 17 17 17 17
40 40 39 38 36 35 35 34 34 33 32 30 28 26 23 22 21 20 19 18 18 18 18 18 17 17 17 16 16 15 15 16 16 17 18 18 18 18 18 19 19 19 19 19
41 41 40 39 38 38 38 36 35 34 33 32 30 28 26 25 23 22 21 20 19 19 20 20 20 19 18 19 18 18 18 18 18 19 19 19 20 20 20 20 20 20 20 20
42 41 41 39 39 40 38 36 36 35 34 33 32 31 28 27 25 24 23 22 22 22 22 22 22 21 21 21 21 20 20 20 20 21 21 22 22 22 22 22 23 23 22 22
42 41 41 40 39 40 40 39 36 35 35 33 33 32 30 28 27 27 25 25 24 24 24 24 24 24 24 24 24 23 23 23 23 23 24 24 25 25 25 25 25 25 25 25
42 42 42 42 40 37 39 38 35 35 36 35 33 33 31 30 28 29 28 27 27 26 26 26 26 26 27 27 27 26 26 26 26 26 27 27 28 27 27 28 27 27 27 27
43 43 43 42 41 38 40 38 36 36 37 35 34 33 33 32 31 31 30 29 29 28 28 28 28 28 29 30 30 30 29 30 30 30 30 30 29 29 30 30 30 30 30 30
43 43 43 42 41 41 43 40 39 38 38 37 35 34 33 33 33 32 32 31 31 30 30 30 30 30 31 32 33 33 33 33 33 33 34 34 33 33 33 34 33 33 32 31
44 44 43 44 43 44 42 41 40 40 39 38 37 37 36 35 35 35 34 34 33 32 32 32 32 32 33 34 35 35 34 36 36 36 37 37 37 37 37 36 35 34 33 33
44 43 43 44 44 44 43 41 40 40 39 39 38 38 37 37 37 37 36 35 35 34 34 34 34 35 36 36 37 37 38 39 39 40 40 39 38 39 39 37 35 34 34 34
43 42 43 44 44 43 43 42 41 40 39 39 39 39 38 38 38 37 37 37 36 36 36 36 36 37 37 38 39 40 40 41 41 41 41 41 41 40 40 39 37 36 35 35
40 41 42 42 43 43 42 42 42 41 41 40 40 39 39 39 39 38 38 38 38 38 38 39 39 39 39 40 41 41 41 42 42 42 42 42 41 41 40 39 39 38 37 36

GEFSCGP_500_meanwind_168.txt.gz
Wind_Speed
13 12 9 8 9 10 8 8 5 6 8 4 5 7 9 11 11 12 13 14 15 16 16 16 15 15 15 15 16 16 15 15 15 14 12 10 8 7 6 4 4 4 5 6
14 12 12 13 12 12 10 8 5 7 8 5 5 6 8 11 11 11 12 13 14 15 15 15 15 15 15 15 16 16 16 16 15 14 13 11 10 8 7 6 5 5 5 5
15 13 15 15 14 12 10 9 8 9 9 7 6 8 8 9 12 11 11 12 12 13 14 15 15 15 15 15 16 16 16 16 15 14 12 12 12 10 8 8 7 5 5 5
18 17 17 16 16 14 11 10 11 10 9 8 8 11 13 9 11 12 11 11 11 12 13 14 15 15 15 15 16 16 16 16 16 15 13 13 12 11 10 9 7 6 6 6
21 20 20 18 17 16 14 13 12 12 11 9 8 11 15 12 10 11 11 11 11 12 13 14 15 15 15 15 15 16 16 16 16 16 14 13 13 12 11 10 9 8 7 6
23 21 21 20 20 18 17 15 13 11 11 12 9 10 14 12 11 10 10 11 11 11 12 13 13 14 14 15 15 16 16 17 16 16 15 14 13 13 12 11 9 9 9 8
25 23 22 21 20 19 18 15 12 12 11 11 9 11 14 14 12 11 12 12 12 11 12 12 12 13 14 14 15 16 16 17 16 16 16 14 13 13 13 12 10 9 9 10
23 23 22 23 21 19 19 17 15 13 11 11 11 12 13 16 15 14 14 13 13 12 11 12 12 13 14 14 15 15 16 16 17 16 16 15 14 13 13 12 11 11 10 10
22 20 20 22 22 22 20 19 16 15 14 14 14 11 14 18 17 16 14 14 13 12 12 12 12 12 13 14 15 15 16 16 16 16 15 15 14 13 13 12 12 12 12 11
26 24 21 22 23 25 22 20 18 19 19 18 15 14 16 18 17 16 14 14 14 13 12 12 12 12 13 14 14 15 16 16 16 16 15 15 15 14 14 13 13 13 13 12
29 28 25 24 25 24 24 23 23 22 20 18 16 16 18 19 19 17 15 16 15 14 13 13 12 12 12 13 14 15 15 15 15 15 15 15 16 16 15 15 15 15 14 14
32 30 29 28 26 24 24 23 23 24 25 23 19 17 15 15 17 16 15 17 17 15 15 15 15 12 14 14 14 15 16 16 16 15 16 16 16 16 16 17 17 16 16 16
33 34 33 30 28 26 27 25 24 25 24 23 21 20 18 17 18 20 18 19 19 17 16 17 16 15 15 16 16 16 16 16 16 16 16 17 17 17 17 18 19 19 19 18
35 36 35 32 28 26 26 27 26 26 26 25 23 22 22 21 20 20 21 21 21 20 18 19 18 17 17 17 17 17 17 17 17 17 18 17 17 18 18 19 19 20 20 19
39 39 38 36 32 28 27 27 26 28 29 27 24 24 23 24 23 24 24 23 23 22 21 20 20 20 18 18 18 18 19 19 19 18 18 18 19 19 19 20 21 21 21 20
40 41 40 39 37 33 31 29 27 27 28 28 26 25 25 26 25 27 27 25 24 23 23 23 22 22 21 20 20 20 20 20 21 20 19 19 20 20 21 22 23 23 24 23
39 41 42 41 38 36 37 32 29 28 28 28 28 27 26 28 29 30 29 27 25 25 25 25 24 24 23 23 22 22 22 22 22 22 21 21 22 22 23 23 24 25 26 26
41 41 42 41 38 39 38 33 31 30 31 30 31 31 32 33 32 34 33 31 28 27 27 27 26 26 25 25 25 24 24 24 24 24 24 24 25 25 25 25 26 26 27 28
43 42 42 42 40 40 37 35 33 32 33 33 33 34 35 34 34 35 35 32 30 30 29 28 28 28 27 26 27 27 26 27 27 27 27 27 28 28 28 28 29 29 30 30
43 42 43 43 41 38 36 34 34 34 36 36 35 36 36 35 34 36 35 33 32 31 30 29 29 30 29 29 29 29 29 29 30 30 30 29 29 30 31 31 31 32 33 32
42 42 43 44 43 41 36 34 35 38 40 39 38 38 38 38 38 37 36 34 32 32 30 30 31 31 31 32 31 31 31 31 32 32 32 32 32 33 34 34 34 34 34 34
39 40 42 43 43 40 40 38 39 40 40 40 40 40 40 39 39 38 37 34 33 32 32 32 33 33 33 33 33 32 32 33 33 34 35 34 35 36 36 36 36 37 36 36
37 38 39 42 44 44 42 44 44 42 41 40 40 41 41 40 40 39 37 37 36 35 35 35 35 35 35 35 35 34 34 35 35 36 36 37 37 38 38 38 38 38 39 38
37 37 39 40 43 45 44 43 44 44 43 42 41 41 41 40 39 39 38 38 37 37 37 37 37 38 38 37 37 37 36 37 38 38 38 38 39 39 40 40 40 39 39 39
35 37 39 41 42 44 46 46 44 45 44 44 43 42 41 41 40 40 40 39 39 38 38 38 38 38 38 39 38 38 38 39 39 39 39 39 40 41 41 41 41 40 40 40
35 36 38 41 42 42 43 44 43 44 45 44 44 44 43 43 43 42 42 40 39 40 40 40 40 40 40 40 40 39 40 40 40 40 40 40 41 41 41 41 41 40 40 40

GEFSCGP_500_meanwind_174.txt.gz
Wind_Speed
19 18 15 13 11 9 7 4 3 1 2 5 7 8 11 11 12 14 15 15 15 15 15 16 16 16 16 16 16 16 16 16 15 14 12 12 11 9 6 5 5 3 1 1
20 18 17 15 13 11 9 8 6 4 4 6 6 7 8 10 12 13 14 13 14 13 13 14 14 15 15 15 15 15 15 15 14 14 13 12 11 10 8 7 5 4 2 1
20 18 19 18 15 13 12 11 9 8 8 8 8 7 8 9 10 11 13 12 12 12 11 12 13 14 14 14 14 14 15 16 15 14 14 12 11 10 8 8 6 5 3 2
22 21 21 19 17 16 15 13 12 12 12 11 9 9 9 11 10 11 11 11 11 11 10 10 11 12 13 13 14 14 14 15 15 14 14 13 11 9 8 7 7 6 4 3
24 23 23 21 19 17 16 16 16 15 15 14 13 13 11 11 11 10 10 10 10 11 9 9 10 11 12 12 13 13 14 14 14 14 14 13 11 10 9 8 7 7 6 4
25 25 25 23 20 19 18 18 18 18 17 16 13 14 12 11 10 10 10 10 9 10 8 8 9 10 11 11 12 12 13 14 14 14 14 13 12 11 10 9 8 7 6 5
27 26 26 24 21 20 20 20 20 20 18 15 14 15 13 11 10 10 11 10 9 8 8 9 9 9 10 10 11 11 12 13 13 13 13 13 13 11 10 9 9 8 7 7
28 27 26 25 23 21 21 22 22 20 18 16 15 15 13 11 11 11 12 12 10 9 9 9 9 8 9 9 10 10 11 12 13 13 13 13 13 11 10 9 9 9 9 9
29 27 25 26 24 23 22 22 22 21 20 19 17 16 13 11 11 12 12 13 12 11 10 10 9 8 8 9 9 10 10 11 12 12 12 12 13 12 10 10 10 10 10 10
29 29 27 26 27 25 24 22 23 23 22 21 19 16 14 13 12 12 12 14 14 14 12 10 9 9 8 8 8 9 9 10 11 11 12 12 12 12 11 10 10 10 10 10
31 30 28 28 29 27 25 24 25 25 25 24 22 18 14 14 13 13 13 15 16 14 11 10 11 10 8 8 8 9 10 10 10 11 12 12 12 12 12 12 11 11 11 12
31 31 30 31 31 30 28 27 27 27 26 26 25 22 17 16 14 14 15 15 16 16 14 13 13 12 11 9 9 9 9 10 10 11 12 12 12 12 12 13 13 13 14 14
33 34 33 32 33 32 31 29 29 28 28 28 28 26 21 20 19 18 17 17 18 17 16 15 15 14 13 12 10 10 11 11 11 12 13 13 13 13 14 14 14 14 15 15
35 37 37 35 34 33 33 32 30 30 31 30 30 27 24 22 21 20 19 19 20 19 18 16 16 17 18 15 12 11 12 12 13 14 14 15 15 15 16 16 16 15 15 16
37 39 39 38 36 35 35 34 32 32 32 32 30 29 27 26 24 23 24 22 22 21 20 19 19 19 19 18 15 14 13 14 14 15 16 17 17 18 18 18 17 16 16 17
39 41 42 41 40 39 38 37 36 35 33 34 33 32 29 29 29 28 26 25 25 24 23 24 24 22 22 20 19 17 16 17 17 17 18 18 19 20 20 20 20 18 18 18
42 42 43 44 42 42 42 39 37 37 36 35 35 33 31 32 32 32 31 29 27 27 27 27 26 25 24 24 24 21 19 20 20 20 20 20 22 23 23 21 21 22 21 21
43 43 44 45 44 45 42 39 39 39 38 37 36 35 35 34 34 33 32 31 30 30 30 30 29 29 28 26 25 24 24 24 23 23 24 23 24 25 23 24 24 24 25 24
43 44 44 45 46 46 43 41 40 40 39 38 37 37 37 35 36 36 35 34 33 33 33 32 32 31 30 28 27 27 26 26 26 26 26 26 26 27 27 27 27 27 26 26
42 43 44 44 45 46 43 42 43 41 41 40 40 39 38 38 38 39 37 37 36 36 37 36 35 34 32 30 30 29 28 28 28 28 29 28 28 29 29 29 29 29 28 28
41 42 43 45 46 46 44 42 43 44 43 41 41 41 40 40 40 40 39 39 39 39 38 38 37 36 35 34 34 32 31 30 30 30 31 31 30 30 31 31 31 31 30 30
41 42 44 45 47 47 45 44 44 44 44 44 43 43 42 42 42 42 42 41 41 41 40 40 39 38 37 36 35 34 32 32 32 33 33 33 32 32 33 32 33 32 32 32
39 41 43 45 46 46 46 46 45 45 45 45 45 45 45 44 44 44 44 44 44 43 42 41 41 39 38 38 37 36 34 32 33 34 34 33 33 33 34 34 34 34 34 35
39 40 42 44 45 46 46 46 46 46 46 46 46 46 46 46 47 47 47 45 45 44 43 43 42 41 40 40 38 37 37 34 34 35 36 35 35 35 35 36 35 35 36 36
37 39 41 43 44 45 45 46 46 46 46 46 47 47 47 47 47 47 46 46 46 45 44 44 43 43 42 41 40 40 38 36 36 36 37 36 36 36 37 37 37 37 37 38
37 38 39 40 41 43 44 45 45 45 45 46 46 47 47 48 48 48 48 47 47 46 46 45 44 43 42 41 40 39 39 39 38 38 38 38 38 38 38 39 39 39 39 39

GEFSCGP_500_meanwind_180.txt.gz
Wind_Speed
22 21 19 18 16 15 12 9 7 5 4 3 2 3 5 6 8 10 11 12 13 14 15 15 14 14 14 14 14 14 14 13 13 12 10 10 8 7 6 5 3 2 2 2
23 22 21 21 20 18 15 12 9 8 7 6 4 3 3 4 6 8 10 10 11 12 13 13 13 13 14 14 13 13 13 13 13 12 11 10 9 8 7 6 4 4 3 2
25 22 24 24 23 21 18 15 13 12 10 9 7 5 4 4 5 6 8 9 9 10 11 11 11 12 12 13 13 13 13 12 12 12 12 11 10 9 8 7 6 5 3 2
27 25 25 25 25 24 21 18 17 16 14 12 11 9 7 5 5 6 7 8 8 8 9 10 10 10 11 12 13 13 13 12 12 12 12 11 10 9 8 8 7 7 5 3
28 26 26 27 26 25 23 21 20 19 18 16 14 13 10 8 7 8 8 7 7 7 8 8 9 10 10 11 11 12 13 12 12 12 11 11 11 10 9 8 7 6 6 5
30 29 28 27 27 27 25 23 22 21 20 19 17 16 12 11 9 9 8 8 7 7 7 7 7 9 9 10 10 10 11 12 12 12 11 11 11 10 9 8 8 6 7 6
31 31 29 28 28 27 26 25 25 24 23 21 19 19 15 13 12 10 9 8 7 7 7 7 7 8 9 9 9 9 10 10 11 11 11 11 10 10 10 9 8 7 7 8
33 32 31 30 29 29 27 27 27 26 25 22 22 22 18 16 14 12 11 10 9 8 7 7 8 8 8 8 8 9 10 10 10 10 11 11 10 10 9 10 9 9 8 9
34 33 32 31 31 30 30 29 28 28 27 26 25 24 21 18 16 14 13 11 10 10 9 8 8 8 8 8 8 9 9 9 10 10 11 11 11 10 10 10 10 10 10 10
34 34 33 33 32 33 32 30 30 30 30 29 27 26 24 21 19 17 15 13 12 11 11 10 9 9 8 8 9 10 10 10 10 10 11 11 11 11 10 10 11 12 11 11
34 34 32 33 34 34 34 33 33 32 32 30 29 26 23 21 21 18 17 15 14 13 12 12 11 9 8 9 9 10 11 11 10 10 11 11 11 11 12 12 11 12 12 11
34 34 33 34 34 35 36 36 35 34 32 31 31 28 24 23 21 19 18 17 16 15 14 13 13 11 11 11 11 12 13 13 12 11 11 13 13 13 14 14 13 13 13 12
33 34 34 34 35 36 37 37 36 35 35 34 32 30 25 25 23 22 21 20 19 18 16 15 14 14 14 13 14 15 15 14 15 13 13 14 15 15 15 16 16 16 16 14
34 35 35 34 34 34 36 37 37 36 36 35 34 31 28 26 25 24 23 22 22 21 20 19 17 16 16 15 17 18 18 18 17 14 14 15 16 17 17 18 18 18 17 16
36 37 36 35 34 35 35 36 36 37 37 36 35 33 30 28 27 26 25 25 24 23 21 21 20 18 17 17 18 20 20 20 18 16 16 17 18 19 19 20 20 20 20 18
38 38 38 37 37 37 37 38 38 38 38 37 37 35 33 31 30 29 28 27 26 25 23 22 21 21 20 20 20 21 21 21 20 19 18 18 19 21 21 22 22 21 20 19
41 40 40 40 39 40 41 40 40 40 39 39 39 38 36 35 33 33 31 30 30 28 27 25 25 24 23 23 22 22 22 22 23 22 21 20 21 22 23 23 22 22 21 21
41 41 42 41 41 43 41 41 41 41 41 41 41 40 39 37 36 34 33 32 32 31 30 29 28 27 27 27 26 25 25 25 25 25 25 24 24 25 25 25 24 24 24 23
40 40 41 42 42 43 42 41 41 41 42 41 40 40 40 39 37 37 36 35 34 33 32 31 31 30 29 30 30 29 29 28 28 28 28 28 28 27 27 26 26 26 27 26
39 39 40 41 42 43 42 41 41 41 42 42 41 40 40 40 39 37 37 37 37 36 36 35 34 33 33 32 32 32 31 31 31 30 30 31 30 29 28 28 28 29 29 28
39 40 41 41 42 43 42 42 41 42 42 41 41 41 40 40 39 38 37 38 39 39 38 37 36 36 36 36 36 35 34 33 33 34 35 33 32 31 30 30 29 30 30 30
40 41 42 42 42 42 42 42 43 42 42 42 42 42 42 41 40 39 39 39 39 40 39 38 39 39 39 39 37 36 36 36 37 38 37 34 34 34 33 31 31 32 32 31
39 40 42 42 42 42 42 43 43 43 43 43 43 43 43 43 43 42 42 41 40 41 40 40 41 41 42 41 39 37 37 38 39 40 39 39 37 35 34 33 33 33 34 33
37 38 40 41 41 42 42 43 43 44 44 44 45 44 44 44 44 44 45 44 43 42 43 43 43 44 45 44 42 40 40 39 40 41 41 40 38 36 36 35 34 35 35 35
36 38 39 40 41 42 41 42 43 43 44 44 45 45 46 46 46 45 45 46 46 45 45 45 46 46 46 44 43 43 43 43 42 41 40 39 39 36 35 36 37 35 35 35
35 37 38 38 39 40 40 41 42 43 43 44 44 45 45 45 45 45 45 45 46 47 47 46 46 47 47 45 43 43 44 43 42 41 40 38 37 36 36 37 37 37 35 35

GEFSCGP_500_meanwind_186.txt.gz
Wind_Speed
21 20 19 18 16 14 12 10 8 7 5 2 1 1 2 4 5 7 8 9 11 12 13 13 13 13 14 14 14 14 13 13 12 11 11 9 9 8 7 7 5 4 3 2
23 22 21 21 18 16 15 13 12 10 8 6 4 3 2 3 3 5 6 8 9 10 10 11 12 13 13 13 13 13 13 13 12 12 11 11 10 9 8 7 6 5 4 3
25 24 23 22 20 19 18 16 14 13 11 9 7 6 5 4 4 4 5 7 8 8 9 9 10 11 11 12 12 12 12 12 12 12 11 11 11 10 9 8 7 6 5 4
27 26 25 23 22 21 20 19 17 16 14 11 10 8 9 8 6 6 6 6 7 8 8 8 9 9 10 11 11 11 11 11 11 12 11 11 11 11 10 10 9 6 6 6
30 28 26 26 24 23 23 21 20 18 17 15 14 11 10 10 8 7 7 7 8 8 7 7 8 8 9 9 10 10 10 10 10 11 11 11 11 10 10 10 10 8 7 7
32 31 29 28 26 25 24 23 22 21 19 19 17 15 13 13 11 9 9 9 8 8 7 7 8 8 8 8 8 9 10 9 9 10 10 10 10 10 9 9 9 9 8 8
33 33 31 30 28 26 25 23 22 20 20 19 19 18 15 14 13 12 11 11 10 8 8 8 8 8 7 7 8 9 9 9 8 9 10 10 10 10 9 9 9 9 9 8
33 33 33 31 29 28 27 25 23 21 19 18 21 20 17 17 16 15 14 13 12 10 10 9 9 9 8 8 8 8 9 9 9 9 9 9 9 9 9 9 10 10 10 10
32 32 33 32 30 30 29 28 25 24 23 21 21 22 19 18 17 17 16 15 14 13 12 11 11 10 10 9 9 9 8 9 9 9 9 9 9 9 10 10 11 11 12 11
33 33 33 32 32 32 31 29 28 26 24 23 22 22 21 19 18 18 17 16 15 15 14 14 13 12 11 10 10 9 9 9 10 10 10 10 10 10 10 11 12 12 12 12
34 33 33 34 34 32 32 31 31 28 27 25 21 21 22 21 20 19 19 18 18 17 16 15 14 13 12 11 11 10 10 10 11 11 11 11 10 10 11 12 13 13 13 13
34 34 33 34 35 34 34 33 32 30 30 29 26 24 25 22 21 20 20 19 19 19 18 18 16 16 15 14 13 13 12 12 12 12 12 12 12 12 13 14 14 14 14 14
35 35 33 32 34 36 36 35 34 33 31 30 28 26 26 25 23 22 22 21 20 20 20 20 19 18 17 16 16 15 15 15 14 14 14 14 14 14 15 15 15 15 15 15
36 36 35 31 30 34 36 36 36 35 32 31 31 29 28 27 25 24 24 24 23 23 23 22 22 21 20 19 18 18 18 17 17 16 16 15 16 16 17 17 17 16 16 16
36 37 36 35 33 34 35 35 36 36 36 34 32 32 32 30 28 27 27 26 26 26 25 25 25 24 23 22 22 21 20 20 20 19 18 18 18 18 18 18 18 18 17 18
38 38 37 36 35 34 35 35 36 36 36 36 35 35 33 32 31 29 29 29 29 28 28 28 27 27 26 25 24 24 24 23 22 22 21 21 20 21 21 20 20 20 20 20
39 39 38 36 36 35 36 36 36 36 36 36 36 36 34 34 33 32 31 31 31 31 30 30 30 29 29 28 28 27 27 26 26 25 24 23 23 23 23 23 24 23 22 23
38 38 38 36 36 37 37 37 36 36 36 36 36 36 35 35 35 34 34 34 34 33 33 33 32 32 31 31 31 31 30 28 28 28 27 27 26 26 26 27 26 26 26 25
37 37 37 36 36 38 39 38 37 37 38 38 38 38 37 37 36 36 36 36 36 36 35 35 35 35 35 35 34 33 32 31 31 30 30 30 30 29 29 29 29 28 27 26
37 36 36 37 35 36 38 38 38 38 40 39 39 39 39 39 39 39 38 37 37 37 38 37 37 37 38 38 36 35 34 34 33 32 33 33 33 32 31 30 30 29 29 29
36 37 36 36 36 36 38 37 36 38 39 38 38 39 39 39 40 39 39 39 38 38 39 39 39 39 40 40 39 38 37 36 36 36 36 36 36 35 34 33 33 32 32 31
35 36 37 36 36 37 39 37 37 38 38 37 38 38 39 39 40 40 40 40 40 40 40 41 41 42 42 42 41 41 41 40 40 39 39 39 38 38 37 36 35 35 34 34
35 35 36 37 38 39 39 39 38 38 37 37 38 38 39 40 40 41 41 41 41 41 41 42 42 42 43 43 43 44 43 43 42 42 42 42 41 41 40 39 38 37 35 34
34 34 35 36 37 38 38 38 39 38 38 38 38 39 39 40 40 41 41 42 41 41 41 42 42 42 42 43 43 43 43 43 43 43 43 43 43 42 41 41 40 39 37 35
31 32 33 34 34 35 36 36 37 38 39 39 39 40 40 40 40 41 41 42 42 42 42 43 43 43 43 43 43 43 43 43 43 44 45 46 43 41 41 40 40 39 37 36
31 32 32 33 34 34 34 35 36 37 37 38 39 39 40 41 42 42 43 43 43 43 43 43 44 44 44 44 44 44 45 45 45 45 46 46 45 44 43 44 42 39 37 37

GEFSCGP_500_meanwind_192.txt.gz
Wind_Speed
17 16 14 12 12 11 10 10 9 9 9 9 6 5 7 9 9 10 10 10 10 11 12 12 13 14 14 14 14 14 14 13 13 12 12 11 11 10 10 9 9 8 6 5
18 18 15 15 15 14 12 12 11 11 11 10 7 6 8 10 9 10 10 10 9 10 10 11 12 12 13 13 14 14 14 14 13 12 12 12 12 11 11 10 10 9 8 6
20 17 16 18 17 15 15 14 13 12 12 11 11 9 10 11 10 10 10 10 9 9 10 10 10 11 11 12 12 13 13 13 13 13 12 12 12 11 11 11 10 9 8 7
22 20 21 21 20 17 17 16 15 15 15 13 12 12 12 14 13 11 11 10 10 9 9 9 10 9 10 10 11 11 12 13 12 12 12 12 12 12 12 12 11 9 9 8
24 23 25 24 21 20 19 18 17 17 17 15 14 14 14 15 15 12 12 12 10 9 9 9 9 9 9 9 10 10 11 12 12 11 11 11 11 11 11 11 11 10 9 10
26 24 25 24 24 23 21 19 18 17 17 19 16 15 16 16 17 15 14 13 13 11 10 9 9 9 9 9 9 9 10 10 11 11 11 11 11 11 11 11 11 10 10 10
27 27 26 25 24 23 22 20 19 18 19 20 17 18 19 20 19 17 16 15 14 14 12 10 10 10 10 10 10 9 10 10 10 11 10 10 11 11 11 11 11 11 10 10
25 25 25 26 26 24 24 23 22 21 20 18 17 19 19 19 19 20 19 18 17 15 15 13 12 11 11 11 11 11 11 10 10 10 10 10 10 11 11 11 11 10 11 11
24 24 23 26 27 27 25 25 23 23 22 21 20 20 20 19 19 19 19 19 18 17 16 16 14 14 13 12 12 12 11 11 11 10 10 10 10 11 11 11 11 11 12 12
28 26 24 25 28 29 28 25 24 25 25 23 21 21 21 22 21 20 20 19 20 19 19 18 16 15 15 14 14 13 12 12 12 11 11 11 11 12 12 13 13 13 13 13
31 30 27 26 28 27 27 27 27 26 25 23 22 22 21 21 21 22 22 22 22 20 20 20 18 17 17 16 15 15 14 14 13 13 13 13 13 13 13 14 14 14 15 15
32 32 31 29 26 26 27 27 27 28 28 27 25 25 23 22 21 22 23 24 23 21 21 21 20 20 20 19 19 18 17 16 15 15 15 15 15 15 15 15 16 16 16 16
33 34 33 30 28 27 28 28 28 29 28 28 26 28 25 25 23 23 25 26 25 23 22 22 22 21 21 21 21 21 20 18 18 17 17 17 17 17 17 17 18 18 18 18
34 35 34 30 27 26 27 28 28 29 29 29 28 28 27 27 26 26 27 28 27 26 25 25 24 24 24 24 23 23 23 22 21 20 19 20 20 20 20 20 20 20 20 20
35 35 35 35 32 29 27 25 26 28 30 30 29 28 30 30 30 31 30 30 29 30 28 28 28 27 26 26 26 26 25 25 24 23 22 22 23 23 23 22 22 22 22 22
36 37 37 37 35 32 32 30 28 30 30 30 31 32 33 33 33 33 33 33 32 32 32 30 30 30 29 29 28 29 28 28 28 27 26 25 25 25 25 25 25 24 24 25
36 37 37 36 35 33 34 33 31 31 32 32 33 35 35 36 36 36 35 36 36 35 33 32 32 32 31 31 31 31 31 31 30 29 29 28 28 27 28 27 27 27 26 26
35 36 37 36 35 36 35 32 32 33 33 34 37 38 38 39 39 38 37 37 37 35 34 34 33 33 33 33 33 32 33 33 32 32 32 31 30 30 30 29 29 29 29 28
35 35 36 35 34 34 33 33 33 33 35 36 39 40 40 39 38 39 39 38 37 36 36 35 35 35 35 35 35 35 35 35 35 35 34 34 33 33 32 32 31 31 31 30
34 34 35 35 33 32 32 33 34 33 36 38 39 39 39 40 40 41 40 38 36 36 36 36 37 37 38 38 38 38 38 38 37 37 37 37 37 36 36 35 34 34 34 33
31 33 34 34 33 31 32 35 34 35 38 39 39 38 38 39 40 40 40 39 39 38 37 38 38 39 40 40 41 42 42 41 40 40 41 40 40 39 39 38 37 38 37 36
30 30 32 32 32 33 35 36 37 38 37 38 39 39 39 39 39 39 40 40 40 39 39 40 40 41 42 43 44 44 43 43 43 43 43 43 42 42 41 41 40 39 38 38
31 31 31 33 35 36 36 38 39 38 37 38 39 39 38 39 39 40 41 41 41 41 41 42 42 42 43 44 44 45 45 45 45 45 45 44 44 43 43 42 41 41 40 39
30 32 34 34 36 38 38 39 38 39 38 38 38 39 40 41 41 41 41 41 41 42 43 43 43 43 43 44 45 45 46 46 47 46 45 45 45 44 44 44 43 42 41 40
31 31 33 35 36 37 39 40 39 38 38 38 38 40 41 41 41 42 42 41 41 41 42 43 43 44 44 44 44 45 46 46 46 46 45 44 44 44 44 44 43 43 42 42
33 33 34 35 36 38 39 39 40 39 38 39 39 40 41 41 42 42 41 40 41 42 42 43 44 45 45 44 44 44 45 46 45 45 45 44 43 44 44 45 43 42 42 42

GEFSCGP_500_meanwind_198.txt.gz
Wind_Speed
21 21 21 19 17 14 12 9 7 7 6 6 6 6 6 7 7 7 8 9 10 11 11 11 11 12 12 12 12 13 13 12 12 12 12 11 10 10 9 8 7 7 5 4
23 21 20 20 18 16 14 12 9 8 8 7 8 7 7 8 8 7 7 7 8 9 9 9 9 10 10 10 10 11 12 12 12 12 12 11 11 10 10 9 7 7 6 5
23 20 22 22 21 19 17 15 13 11 10 11 11 10 9 9 9 7 7 7 7 8 8 8 8 8 8 8 9 9 10 10 10 10 11 11 11 11 10 10 9 7 6 6
24 22 24 24 23 21 19 17 16 14 14 15 15 14 12 11 10 8 7 9 8 8 8 8 7 7 7 7 7 7 8 8 8 9 9 9 10 10 9 9 8 7 6 6
25 24 24 24 23 22 20 19 20 18 18 18 17 18 15 14 13 10 10 10 10 10 9 8 7 7 7 7 7 7 7 7 6 7 7 8 8 9 9 9 8 7 6 5
24 24 25 24 23 23 21 21 22 22 22 22 19 20 18 16 16 15 13 12 11 11 11 9 8 8 7 7 7 6 6 6 6 6 6 7 7 8 9 9 8 7 6 6
26 26 25 24 25 24 24 24 24 24 25 23 21 23 21 18 17 17 16 15 13 13 12 11 10 10 9 8 8 8 7 6 6 6 6 6 7 7 8 9 9 8 7 7
28 28 26 26 26 24 25 26 27 26 25 23 22 23 20 18 18 18 17 16 15 15 12 12 11 10 10 9 9 9 8 7 7 7 6 6 6 7 7 8 9 9 8 8
28 27 27 27 26 25 26 27 26 26 26 26 24 23 22 19 19 18 18 18 17 17 14 13 13 12 12 12 12 11 10 9 9 9 8 8 8 7 7 8 8 9 9 9
27 28 27 27 27 27 28 27 27 28 28 29 28 26 24 22 20 19 19 20 19 19 17 15 14 14 13 14 14 13 12 12 11 10 10 10 10 9 9 8 8 9 10 10
28 29 27 28 29 28 29 29 30 30 30 31 31 29 24 23 22 22 21 21 20 19 18 17 17 16 16 16 16 15 15 14 13 12 12 12 12 11 11 10 10 11 11 11
30 29 29 30 29 29 30 31 31 33 32 31 32 31 27 26 25 24 24 22 20 20 21 20 19 18 19 18 17 18 17 16 15 15 15 14 14 14 13 12 12 13 13 13
31 31 31 31 31 32 33 33 34 34 34 34 34 33 31 30 28 26 25 24 24 22 24 23 21 21 22 21 20 19 19 19 19 18 17 16 16 16 15 14 14 15 15 15
33 33 33 34 34 34 35 35 35 35 36 36 36 35 33 33 31 29 27 26 25 24 25 25 25 24 23 24 23 23 22 23 22 20 20 19 19 18 18 17 17 17 17 17
34 35 35 35 35 37 37 37 38 38 38 38 37 37 34 33 33 31 30 29 29 28 28 27 28 27 26 26 26 25 24 24 24 22 21 21 20 20 20 20 20 20 20 20
34 34 35 36 36 38 38 38 38 38 39 39 38 38 36 35 34 33 32 32 31 30 30 29 31 30 28 28 28 27 27 27 26 24 24 24 23 23 23 24 24 24 23 23
34 35 35 36 37 37 38 38 39 39 39 40 41 41 40 38 37 35 35 34 35 33 32 31 31 31 31 31 30 30 28 28 28 28 27 27 27 27 27 27 27 26 27 26
35 35 37 37 36 39 37 36 39 40 39 39 40 41 40 38 37 37 36 35 36 35 34 33 33 33 33 32 32 32 33 32 32 31 30 29 29 30 30 29 29 29 29 29
35 36 37 38 38 38 37 36 36 38 38 38 38 40 41 41 41 40 39 37 36 35 34 34 34 34 34 34 34 34 34 34 34 34 34 33 32 33 33 33 33 33 33 32
33 35 37 37 37 37 36 36 36 37 38 37 37 38 39 40 41 41 40 39 38 36 36 35 35 36 36 36 37 37 37 37 36 36 36 36 36 36 36 35 36 36 36 36
32 34 36 36 37 38 37 37 37 38 38 37 37 37 37 39 41 41 40 40 38 38 38 37 37 38 38 38 38 38 39 40 40 39 39 40 39 39 40 39 39 39 39 39
32 34 35 36 36 37 36 38 38 37 37 39 39 39 39 39 41 41 41 40 39 39 39 39 38 38 39 38 39 39 41 41 41 41 41 41 42 42 43 43 42 41 41 40
31 32 33 34 34 35 35 36 38 38 38 38 39 40 40 40 40 40 40 39 40 40 39 40 39 39 39 39 40 40 40 41 42 42 42 43 43 43 44 44 44 44 44 43
30 31 32 33 34 34 34 35 35 36 37 38 38 38 39 39 40 41 40 39 39 40 40 40 41 40 40 40 40 40 40 41 42 43 44 44 44 45 45 46 46 46 46 45
30 31 32 33 33 34 35 35 35 36 36 35 36 36 37 38 38 39 39 39 39 39 39 41 41 40 40 40 40 40 40 41 42 42 43 44 45 46 46 47 47 46 45 43
29 31 32 33 34 35 34 35 35 35 35 35 36 37 37 38 38 39 38 38 39 39 38 39 39 40 41 41 42 42 41 42 42 43 44 45 45 46 46 46 46 44 43 42

GEFSCGP_500_meanwind_204.txt.gz
Wind_Speed
24 23 22 21 21 20 18 17 15 13 13 12 10 8 5 3 3 3 4 5 6 7 9 9 10 9 10 10 10 9 10 10 10 10 11 10 9 9 9 8 6 5 4 4
25 25 23 23 23 23 21 19 17 16 16 15 14 11 9 7 6 4 4 4 4 6 7 7 8 9 8 8 8 8 8 8 9 9 9 9 9 9 9 8 7 6 5 4
26 25 26 26 25 25 23 22 20 19 18 18 17 15 12 10 9 7 6 6 5 5 5 6 7 8 8 7 6 6 7 7 7 7 7 8 8 8 8 7 7 6 6 4
27 26 27 27 27 27 25 23 22 22 22 21 21 19 15 13 11 9 9 8 8 7 6 6 7 8 8 7 6 6 6 6 6 6 6 6 6 7 7 7 7 7 6 5
27 27 28 28 27 27 26 26 26 25 24 24 22 22 18 16 14 12 10 10 10 8 7 7 8 9 8 8 7 7 7 7 6 6 5 4 5 6 6 6 6 6 6 6
28 29 29 29 29 29 27 27 28 28 28 27 24 24 20 18 16 15 12 12 12 11 9 9 9 10 9 9 8 8 7 6 7 7 7 5 5 5 6 6 6 6 6 6
29 30 30 31 31 31 31 30 30 31 31 29 26 27 22 19 19 18 17 15 15 14 13 12 11 11 10 10 9 9 8 7 7 8 8 6 6 6 6 7 7 6 6 6
30 30 31 32 33 33 33 33 33 33 32 30 30 30 24 21 20 20 19 18 18 17 16 15 15 13 12 12 11 10 10 9 9 9 8 8 7 7 7 8 8 8 6 6
31 30 30 32 34 35 35 34 34 34 34 34 33 31 28 24 22 21 20 20 19 19 19 17 17 15 14 14 12 12 12 12 11 11 10 8 9 9 8 9 9 9 9 8
31 31 31 32 34 36 35 35 35 36 36 36 36 34 31 26 24 23 22 21 20 20 20 19 19 18 17 16 14 14 14 14 14 14 13 11 11 10 10 10 10 10 10 10
31 32 31 32 34 35 35 35 36 36 37 37 38 36 30 28 25 24 23 22 21 21 21 21 20 21 20 18 17 16 16 16 17 17 16 15 14 13 12 12 12 12 12 12
32 33 32 32 33 33 34 35 36 37 38 38 38 36 31 29 27 25 24 23 22 22 22 22 22 22 20 20 19 19 19 19 19 19 19 18 18 16 15 15 15 15 15 14
32 33 32 32 33 33 34 35 36 38 39 39 39 37 32 31 29 27 26 25 24 24 24 23 23 23 23 21 21 21 21 21 21 20 20 20 19 19 18 19 18 18 17 17
32 33 33 34 33 33 34 35 36 38 39 39 39 37 33 31 30 29 29 28 27 27 26 25 25 24 24 24 24 24 24 23 23 23 23 23 22 21 21 21 21 21 20 20
33 34 34 34 34 34 34 34 36 37 39 39 39 37 34 33 32 31 30 30 29 28 29 28 28 27 25 25 26 27 27 26 26 25 25 25 24 24 23 23 22 23 22 22
33 34 35 35 35 35 34 34 35 36 37 39 40 38 35 35 35 34 33 32 32 31 31 32 31 28 28 28 28 29 29 29 29 28 27 27 27 27 26 25 24 24 24 25
34 33 34 35 35 37 37 36 36 36 37 38 39 39 38 38 37 35 35 35 33 33 32 32 31 31 31 31 30 30 30 30 30 29 29 28 28 29 29 28 28 27 27 27
32 33 33 35 35 36 35 36 37 37 38 38 37 37 37 38 38 36 36 35 34 34 33 33 33 33 33 33 33 31 32 31 31 31 30 30 31 30 30 30 30 30 30 30
33 33 34 35 36 36 35 35 36 37 37 37 37 37 38 37 37 36 35 35 35 35 35 34 35 36 35 35 35 35 33 32 32 33 32 32 32 32 32 32 32 33 33 33
34 33 33 34 35 36 35 35 36 37 37 36 37 37 37 36 37 35 35 36 36 35 35 36 35 36 36 36 36 35 35 35 34 33 33 34 35 35 35 35 35 36 36 35
33 33 33 34 34 35 35 34 34 35 36 36 36 37 37 36 35 35 35 36 37 37 37 37 37 36 36 36 36 36 36 35 34 34 35 35 36 37 37 37 38 39 39 38
31 32 32 33 33 33 33 33 33 35 35 35 35 35 35 35 35 35 35 35 36 38 38 38 38 37 37 38 38 38 37 37 36 36 36 36 37 38 38 38 39 40 40 40
31 32 32 32 32 32 32 33 32 33 34 34 34 34 34 33 33 33 34 34 35 36 36 36 37 37 37 37 38 37 38 39 38 38 38 38 38 38 39 40 40 40 40 40
31 31 32 32 31 31 31 32 32 32 33 33 33 33 32 32 32 33 32 33 34 35 35 35 36 37 37 38 38 39 39 40 40 40 40 40 40 40 40 40 40 40 40 40
30 30 30 30 30 31 31 30 31 31 31 32 33 33 32 32 32 32 33 33 34 34 34 35 36 37 38 39 40 40 41 42 42 41 41 41 41 40 40 41 41 41 40 40
27 28 28 29 29 30 30 29 30 31 31 32 33 33 33 33 33 32 33 33 34 34 35 35 36 38 39 40 40 41 42 42 42 41 40 41 41 41 42 42 42 42 42 41

GEFSCGP_500_meanwind_210.txt.gz
Wind_Speed
20 19 18 17 17 17 16 15 13 13 14 12 11 10 9 7 5 4 3 3 4 5 6 6 6 7 7 7 7 7 7 7 7 7 6 6 6 6 5 4 3 2 2 2
22 21 20 20 20 19 19 17 15 16 17 15 15 14 12 11 9 8 6 5 5 5 6 7 6 5 5 5 6 5 5 5 6 6 5 5 5 5 4 4 3 3 2 2
23 22 22 22 22 22 21 20 19 19 19 18 16 15 14 12 11 10 9 9 8 8 8 8 8 7 6 5 6 5 5 5 5 6 5 4 5 5 4 3 3 4 3 3
24 24 24 24 23 22 22 21 22 22 20 19 18 16 16 14 13 12 11 11 10 10 9 9 9 8 7 7 6 6 6 6 5 5 5 5 5 5 4 4 3 3 4 4
25 25 25 25 25 24 24 24 24 23 22 21 20 19 18 17 15 13 13 12 12 12 11 10 10 10 9 9 8 8 7 6 6 6 5 5 5 5 5 5 4 4 5 5
26 26 27 26 26 26 26 25 25 25 24 25 23 22 20 19 17 15 15 15 14 14 12 11 11 11 11 11 11 9 9 8 8 7 6 6 6 6 6 6 6 6 6 6
27 28 28 28 28 28 27 26 25 25 25 25 25 25 23 22 20 18 17 16 16 15 14 14 14 14 13 13 13 12 11 11 10 9 8 8 7 7 7 7 7 8 9 9
26 28 29 28 28 28 28 28 27 26 25 25 26 27 25 22 22 21 20 19 19 18 18 17 17 17 16 15 14 14 13 13 12 11 11 10 10 10 9 10 10 11 11 10
26 28 29 29 29 29 29 29 29 29 28 28 28 28 25 24 24 23 23 21 21 21 20 20 20 19 19 18 17 17 16 16 15 14 14 13 12 12 11 12 12 13 13 12
26 27 28 29 30 31 31 30 30 30 29 29 29 28 26 25 24 24 23 23 23 23 22 22 21 21 22 21 20 20 19 19 18 18 16 16 15 14 14 14 15 14 13 13
26 26 27 28 30 30 32 32 32 32 31 30 29 28 27 27 26 25 25 24 24 23 23 23 22 22 22 22 22 22 22 21 20 20 20 19 18 17 16 16 16 16 16 15
26 26 26 28 29 30 32 32 32 32 33 33 31 30 29 29 27 27 26 25 25 25 25 24 23 23 23 24 24 25 24 23 23 23 22 21 21 20 19 18 18 17 17 17
26 27 27 26 27 29 31 31 32 33 33 33 32 30 29 30 29 27 27 26 26 26 27 26 26 25 25 25 25 26 26 26 26 24 23 22 23 22 20 21 20 19 19 19
28 29 28 26 25 27 29 30 31 32 32 32 32 31 31 31 30 28 28 28 28 28 28 28 28 28 27 27 27 27 27 28 28 26 24 24 23 23 22 22 22 23 22 21
30 30 30 30 30 29 30 30 31 32 33 34 33 32 32 32 32 31 29 29 29 30 30 30 30 30 29 29 29 29 30 30 29 28 27 26 26 26 25 25 24 24 24 23
31 32 32 32 31 31 31 31 31 32 33 34 33 33 33 32 31 31 30 30 30 31 32 31 31 31 31 31 31 31 32 33 32 30 29 29 29 29 28 27 26 26 27 26
32 32 32 32 32 33 32 30 31 31 32 32 33 33 32 32 30 30 30 30 30 30 31 32 33 32 32 32 33 34 34 34 33 33 32 32 32 31 29 29 28 28 28 29
31 31 32 32 32 33 31 30 30 32 33 33 34 34 33 33 32 31 31 31 32 32 31 32 33 33 33 34 34 35 34 34 33 34 34 33 32 30 31 31 29 29 29 29
32 32 32 32 31 32 32 32 32 31 33 33 33 33 34 34 33 33 32 32 33 33 33 33 32 33 34 36 36 35 36 35 35 35 34 34 34 33 32 31 31 31 31 31
32 32 32 32 31 30 30 32 31 31 33 33 33 33 33 33 33 34 33 33 34 34 34 34 34 34 35 35 35 35 36 37 37 36 35 35 35 34 33 32 32 33 33 32
31 31 31 31 31 30 31 30 29 30 31 32 32 32 32 33 33 34 34 34 34 34 34 34 34 35 35 36 36 36 37 37 37 37 37 36 36 35 34 34 34 34 34 33
30 30 30 30 30 30 30 29 30 31 30 30 30 30 31 31 32 33 33 32 33 34 34 34 35 35 36 35 36 37 37 37 38 39 38 38 37 36 36 36 35 35 35 34
30 30 30 30 30 30 30 29 29 30 30 30 30 30 30 30 30 31 31 31 31 31 31 33 34 35 36 35 35 36 37 37 38 38 37 38 38 37 37 36 36 36 36 36
30 30 30 30 30 29 29 29 29 29 29 29 29 30 30 30 30 30 30 30 30 30 31 31 31 32 33 34 35 36 36 37 37 38 38 38 39 38 38 37 37 37 37 37
30 30 30 30 30 30 30 30 30 29 28 28 28 29 29 29 30 30 30 30 31 31 30 30 30 31 32 32 33 34 36 38 39 39 39 39 38 38 38 38 38 38 38 39
30 30 30 29 29 30 29 29 29 29 28 27 27 28 28 29 29 29 30 30 30 30 30 30 31 32 33 33 34 35 36 36 37 38 37 37 37 38 39 40 40 40 40 40

GEFSCGP_500_meanwind_216.txt.gz
Wind_Speed
12 13 12 12 12 12 13 13 12 11 9 7 8 10 12 12 10 10 10 9 9 9 9 9 9 10 10 10 10 10 9 9 9 8 8 6 6 6 7 6 4 3 3 3
14 13 13 14 14 15 15 15 13 12 11 9 10 11 13 14 12 12 13 11 10 9 10 9 9 9 9 9 9 9 8 8 8 8 8 7 6 6 7 6 5 4 4 3
15 14 15 16 16 17 15 16 16 16 15 12 11 13 14 14 14 15 14 13 12 10 10 10 9 9 9 9 9 9 9 8 8 8 8 7 7 7 7 7 6 6 5 4
18 18 18 18 18 18 17 17 18 18 15 14 14 17 16 16 16 17 16 14 13 11 10 10 10 10 10 9 9 9 9 9 9 9 9 8 9 8 8 7 7 6 5 6
18 18 19 19 20 19 18 17 19 19 17 17 16 16 17 16 17 17 18 16 15 13 12 12 11 11 10 10 10 10 10 9 10 10 10 10 10 10 9 8 7 7 6 7
19 18 20 21 21 20 19 19 19 17 18 19 16 17 18 17 19 19 18 17 16 17 14 13 13 13 12 11 11 11 11 10 11 11 11 12 11 11 10 9 9 8 8 8
18 19 20 21 22 21 20 19 19 18 19 20 18 18 20 19 20 21 20 19 19 20 18 16 16 16 15 14 13 13 13 13 12 12 13 13 13 12 12 11 11 10 10 11
17 19 20 21 22 23 21 21 22 21 21 20 20 21 20 21 21 21 21 20 20 22 21 19 18 18 18 17 16 15 15 15 15 15 15 15 14 14 14 14 14 13 13 13
18 19 20 20 22 22 22 23 23 24 24 23 22 22 21 23 21 20 20 21 22 24 23 21 21 20 20 19 19 19 18 17 17 17 17 17 16 16 17 17 16 16 16 16
20 20 19 20 21 22 23 23 22 23 24 24 22 21 24 23 22 23 22 23 24 25 24 24 23 23 22 22 22 22 21 20 19 19 19 19 18 18 18 18 18 18 17 17
22 23 20 19 20 20 21 23 24 24 24 24 24 24 24 27 26 25 25 26 26 26 25 24 24 25 24 23 24 24 23 22 21 21 21 21 21 20 20 20 20 20 20 20
23 23 23 21 20 21 22 22 23 25 27 26 26 26 25 28 27 27 27 28 26 27 28 27 27 27 27 26 26 26 26 25 24 23 23 23 23 22 21 22 23 23 23 23
25 25 23 21 20 21 22 23 24 25 26 27 26 28 28 27 29 29 28 30 29 29 29 29 29 30 29 29 28 28 27 27 26 26 26 25 25 24 24 24 25 25 25 24
27 26 25 22 21 21 21 22 23 25 26 28 27 27 28 29 30 31 31 31 31 30 30 31 31 31 31 31 30 29 29 29 28 28 28 28 28 27 26 26 25 26 24 23
29 29 28 27 25 24 23 23 24 25 28 30 29 29 30 32 34 33 31 31 31 30 31 32 32 32 32 32 31 31 31 31 31 30 30 30 30 30 29 28 27 26 25 25
31 32 31 31 29 28 28 27 26 27 28 29 30 31 32 34 34 35 32 32 32 31 31 32 33 34 33 33 32 32 33 33 33 33 32 33 33 32 31 31 30 29 28 28
32 32 33 32 31 31 31 28 29 30 30 31 31 32 32 33 34 35 33 33 32 31 32 32 33 34 34 33 33 34 33 34 35 35 35 34 34 34 33 33 33 33 31 30
33 34 33 33 33 35 32 29 30 32 32 32 33 34 35 34 34 33 32 32 33 33 32 32 33 34 34 34 34 35 35 36 36 36 35 35 35 35 35 35 34 34 33 32
33 34 34 33 33 34 31 30 31 33 33 34 35 35 35 35 35 34 33 34 34 34 33 32 33 35 35 36 36 36 37 37 37 37 36 36 37 37 36 35 34 35 34 33
32 33 34 34 34 33 31 31 32 34 33 34 34 35 34 34 35 35 35 34 34 34 35 34 35 36 37 37 37 37 37 38 38 37 38 38 38 39 38 36 35 35 34 35
31 32 34 34 34 33 32 33 33 34 35 34 34 34 33 34 35 36 36 35 35 35 35 36 37 37 37 38 38 38 38 39 39 39 40 39 38 38 37 37 36 35 35 35
32 32 32 32 33 33 33 33 34 35 34 33 34 33 33 34 34 35 35 35 35 36 36 36 35 36 37 37 38 39 39 39 39 38 38 38 38 36 37 37 37 37 37 37
33 33 33 32 33 34 32 32 33 33 34 34 34 35 33 33 34 34 34 34 34 34 35 36 35 35 35 35 36 36 37 38 38 37 37 37 37 37 38 38 39 38 38 38
33 33 34 34 34 33 32 32 33 33 33 34 34 34 33 35 35 34 32 31 32 34 35 36 36 36 35 36 36 36 37 38 37 37 36 35 35 36 37 37 37 37 37 37
34 34 35 34 33 33 33 32 32 33 33 33 34 34 33 34 35 34 34 33 34 34 34 35 36 36 35 35 36 36 35 35 36 35 34 34 35 35 36 37 36 35 36 37
33 33 33 33 33 33 32 32 31 33 34 35 34 33 33 33 34 34 34 34 34 34 35 35 35 35 36 36 36 36 35 35 34 33 33 34 35 35 35 36 36 35 35 35

GEFSCGP_500_meanwind_222.txt.gz
Wind_Speed
14 15 14 14 14 13 13 12 10 9 8 8 7 7 8 7 6 6 8 7 7 8 8 8 8 8 8 8 8 8 9 9 9 9 9 8 7 7 6 6 6 4 3 2
15 15 14 15 16 14 14 14 12 11 12 10 10 11 10 9 8 7 8 8 7 6 7 7 6 6 6 6 6 6 7 8 8 8 8 8 7 6 5 5 4 4 3 3
16 14 15 16 16 15 15 15 14 14 13 13 13 13 13 11 9 9 9 9 7 8 7 7 6 5 5 4 4 4 5 6 6 6 6 6 6 5 5 5 4 3 2 2
17 16 17 17 16 16 16 17 17 16 16 15 16 16 15 13 12 11 10 10 9 8 8 8 7 6 5 4 4 3 4 5 5 5 5 5 5 5 4 4 4 4 3 2
17 17 17 16 16 16 16 17 18 17 18 17 16 16 15 15 14 12 12 12 10 10 9 9 8 8 7 6 6 5 5 5 5 5 4 4 5 5 5 5 5 4 4 4
16 17 17 16 16 17 17 18 18 19 18 17 16 16 15 14 14 12 13 13 12 11 9 9 9 9 8 8 8 8 7 7 7 6 6 5 5 5 5 5 6 6 6 6
16 16 17 17 17 17 18 18 19 19 19 18 17 18 16 15 16 15 14 15 14 13 12 11 10 9 10 10 10 11 11 10 10 9 9 9 8 7 7 7 7 7 7 7
17 16 16 16 16 16 18 20 20 19 19 18 20 20 18 18 18 17 17 17 17 15 14 13 12 11 12 12 13 14 14 13 12 12 12 12 12 11 10 10 10 10 10 10
18 17 17 17 16 17 18 20 20 21 20 21 21 22 21 20 19 18 18 18 18 18 17 16 16 15 15 15 15 16 16 15 14 14 14 15 15 15 14 13 13 13 12 11
18 18 18 18 18 19 20 20 21 22 23 23 22 23 22 21 21 21 20 20 21 21 20 20 20 19 18 18 18 18 17 17 17 16 17 17 17 17 17 16 16 16 15 14
21 22 21 21 21 21 21 23 23 23 24 25 24 23 23 23 22 23 22 23 23 24 23 23 23 22 21 21 21 21 20 19 18 18 18 18 18 19 19 19 19 19 18 17
23 24 24 23 24 23 23 23 24 25 25 26 26 24 23 24 23 24 24 24 25 25 24 23 24 25 24 23 23 23 22 21 20 19 19 19 20 21 21 21 21 21 21 21
26 26 26 25 25 26 25 24 26 26 26 26 28 27 24 25 25 24 25 24 25 26 25 25 25 25 25 25 25 25 24 23 23 22 21 22 22 22 22 23 23 22 22 22
29 29 29 27 26 27 28 28 28 28 28 28 28 27 27 27 27 27 28 27 25 26 25 26 26 26 27 26 26 26 25 25 24 24 24 24 24 24 25 24 24 24 23 23
32 31 31 30 29 29 29 29 28 29 31 32 30 29 29 29 29 29 30 29 27 27 26 27 29 30 30 29 28 28 27 27 27 28 28 27 27 26 27 27 27 27 26 26
34 34 33 33 33 32 31 30 30 30 31 33 33 32 31 30 30 31 31 31 31 30 30 31 32 32 31 31 30 29 29 29 30 30 31 31 31 29 28 28 28 28 28 28
35 35 34 34 34 35 35 33 32 33 33 33 33 33 33 33 32 31 31 32 32 33 33 34 34 31 31 30 31 31 30 30 30 32 33 33 32 31 30 30 30 29 30 30
35 36 36 35 35 36 34 34 35 36 36 34 34 34 34 34 34 33 32 33 33 33 34 34 34 33 32 32 31 31 31 31 31 32 32 32 33 33 32 32 32 31 31 31
36 36 37 38 38 37 35 35 35 37 38 37 37 37 37 36 36 35 34 34 34 34 34 34 32 31 32 32 32 31 32 32 32 33 33 34 34 34 35 34 33 33 33 33
36 36 37 38 39 38 36 36 37 38 39 38 38 39 39 38 37 36 36 36 36 36 35 34 34 34 34 33 32 32 32 32 33 33 34 35 36 37 37 37 36 35 35 36
35 36 37 38 38 38 37 37 36 38 39 37 38 38 38 37 37 37 36 36 37 37 36 35 35 35 34 33 32 32 33 34 35 35 36 37 38 39 39 38 38 38 38 37
35 36 37 37 38 38 37 37 37 37 37 37 37 37 37 37 37 36 36 36 36 36 36 36 35 34 34 34 33 33 34 35 36 36 36 37 37 38 39 39 39 39 39 38
35 36 37 37 37 36 36 36 36 36 36 36 36 37 37 37 37 36 35 35 34 34 35 35 35 35 35 35 35 34 34 35 36 35 35 36 36 37 38 39 39 39 38 38
35 36 36 37 36 36 35 35 36 36 35 35 35 36 36 36 36 36 35 36 36 36 37 35 35 35 36 36 36 36 35 35 35 34 34 35 35 36 37 37 37 37 37 36
34 35 36 36 35 36 35 35 35 36 35 35 35 35 36 36 36 36 36 36 36 35 35 36 36 36 37 37 37 36 36 36 35 34 34 34 35 35 35 36 36 36 35 36
32 34 35 35 35 36 36 35 37 37 36 36 35 35 33 33 34 34 34 34 34 34 34 34 34 35 36 35 35 36 35 35 34 34 34 34 34 34 34 35 35 35 33 33

GEFSCGP_500_meanwind_228.txt.gz
Wind_Speed
18 17 16 16 17 17 16 15 14 14 14 13 10 8 7 6 5 4 3 0 1 2 4 5 5 5 5 5 6 6 7 7 6 6 5 4 4 4 3 2 1 1 1 1
19 18 17 18 19 19 19 18 17 17 16 16 14 12 11 9 8 6 5 4 2 1 2 4 4 3 3 3 4 5 6 6 5 5 4 4 3 3 3 2 1 1 1 2
18 18 19 20 20 21 21 20 18 18 17 18 17 15 14 12 11 9 8 6 5 4 3 2 2 2 1 3 3 4 4 4 4 4 4 4 3 3 2 2 2 2 3 3
18 18 20 20 21 21 21 21 20 19 19 19 18 18 16 15 13 11 11 9 7 6 5 4 3 2 2 2 2 2 2 3 2 2 2 2 3 3 3 3 3 4 4 5
18 19 20 20 21 21 21 22 21 21 21 21 20 20 18 17 16 14 13 11 10 9 8 7 6 5 4 4 4 3 3 3 3 3 3 3 3 4 4 5 5 6 7 8
19 19 20 20 21 23 22 23 22 22 22 22 21 22 20 19 17 15 14 13 12 11 11 10 9 8 6 6 6 6 5 6 6 6 6 6 6 6 6 6 7 8 9 10
19 19 19 20 22 22 22 22 22 22 22 22 21 23 22 19 17 17 17 16 16 15 13 11 10 10 9 9 8 9 9 9 9 9 9 9 9 9 8 8 9 10 11 12
20 19 19 20 21 22 22 23 23 23 22 22 22 22 21 19 19 19 20 19 18 17 15 13 12 12 11 11 10 10 11 11 12 12 12 12 12 12 12 12 12 12 12 13
21 21 20 21 21 21 22 23 24 24 24 23 23 22 22 20 20 20 21 20 19 19 17 16 15 15 15 14 13 12 13 13 14 14 15 14 15 15 15 15 15 15 15 15
22 22 21 21 21 22 23 22 23 25 25 26 26 24 23 22 21 20 21 20 19 20 19 19 18 18 17 18 17 16 16 16 17 17 17 17 18 18 18 16 16 17 17 17
23 24 23 23 24 24 24 24 24 25 26 27 27 26 23 23 21 21 20 20 19 19 20 21 21 20 20 20 20 19 19 20 20 20 19 19 20 21 20 19 19 19 19 19
25 26 25 25 25 26 26 26 26 27 28 29 30 28 25 24 23 23 22 22 22 22 22 23 23 23 23 22 22 21 21 21 22 21 21 21 21 21 21 21 21 20 20 21
27 28 28 28 28 28 28 28 28 28 29 30 31 29 27 26 25 25 25 24 24 24 24 25 25 25 25 24 24 23 22 22 23 23 23 22 22 22 22 23 23 23 23 23
30 31 31 30 30 30 30 30 30 31 31 32 32 31 29 28 27 26 26 26 26 26 25 26 27 27 27 27 26 25 24 23 23 24 24 24 24 24 25 25 25 25 26 26
32 33 33 32 31 31 31 32 33 33 33 34 33 33 31 30 29 28 27 27 27 27 27 27 28 28 28 29 28 26 26 26 25 25 25 25 26 26 26 27 28 27 27 28
33 34 33 33 33 33 34 33 34 34 34 34 35 34 32 31 30 30 29 28 28 27 28 28 28 29 29 29 28 28 28 28 27 27 27 28 29 29 28 29 30 29 29 30
34 35 35 35 35 35 35 34 35 35 35 36 35 34 34 33 31 30 30 29 29 29 29 29 30 30 30 29 29 30 30 29 29 29 29 30 30 30 30 31 31 32 31 31
36 36 38 38 37 37 35 34 36 37 36 37 37 36 36 35 33 33 33 32 30 30 30 30 30 30 30 30 31 32 32 31 32 32 32 32 32 32 32 33 33 32 31 31
38 38 38 39 39 38 36 36 36 37 37 37 37 37 37 36 34 33 33 33 32 32 32 32 32 32 32 31 32 32 32 34 34 34 33 32 33 33 33 34 33 33 33 33
38 39 40 40 41 40 37 37 37 37 38 36 37 37 37 37 35 34 33 34 34 35 35 34 34 35 35 35 35 35 34 35 36 35 34 33 34 35 34 34 34 34 34 34
38 39 40 40 41 41 40 39 38 38 37 36 37 37 37 37 36 35 35 35 35 36 36 36 36 36 36 36 35 36 36 35 36 36 35 35 35 35 34 34 35 35 35 35
38 39 39 39 40 40 39 39 40 39 38 37 36 37 38 38 38 37 37 36 36 36 36 37 38 38 38 36 35 36 36 36 36 36 36 36 35 35 36 36 36 36 36 36
38 39 39 40 40 40 39 39 39 39 38 38 37 37 38 38 38 38 37 37 37 37 38 38 39 39 37 36 36 36 36 36 36 37 37 36 35 36 37 37 36 36 36 37
39 38 38 38 38 39 39 39 38 38 38 38 38 38 38 38 39 39 38 38 38 38 38 38 38 38 37 37 36 35 35 35 35 36 37 37 37 36 36 36 36 36 36 36
38 38 37 37 37 37 37 37 38 38 38 38 37 37 38 39 39 39 39 38 38 38 37 37 36 36 35 36 36 36 36 36 37 37 38 38 37 37 36 36 36 36 36 36
36 38 38 37 36 37 36 37 37 38 38 38 38 38 38 39 39 38 38 38 37 37 37 36 36 35 35 35 35 35 35 36 36 36 36 37 37 37 37 37 36 36 36 36

GEFSCGP_500_meanwind_234.txt.gz
Wind_Speed
13 12 12 13 14 14 14 13 13 13 12 11 10 10 9 7 6 5 5 4 4 3 2 2 2 2 2 2 3 3 4 4 4 4 4 4 4 4 3 2 1 1 0 0
15 14 14 15 15 15 15 14 15 14 13 13 13 12 11 9 8 8 7 7 6 5 4 3 2 2 1 0 1 2 3 3 3 3 2 3 3 2 2 1 0 0 1 1
15 15 16 16 16 16 16 16 16 15 15 14 14 13 12 11 9 9 9 8 8 7 6 5 4 3 3 2 1 1 1 2 2 2 1 1 1 1 0 0 1 1 1 2
16 17 17 17 17 17 17 18 18 16 16 15 14 14 13 13 12 10 10 10 9 9 9 8 6 5 5 4 4 3 2 2 2 2 1 2 2 2 2 2 2 2 3 4
17 17 18 18 17 17 18 18 18 18 18 18 17 16 15 14 14 13 12 12 12 11 11 11 10 9 8 7 6 6 5 4 4 4 4 4 4 4 4 4 4 4 4 5
18 18 18 18 18 19 19 18 18 18 18 18 17 17 17 16 15 15 15 14 14 14 14 13 13 12 10 10 9 8 8 7 7 7 6 6 7 7 7 7 7 7 7 7
19 19 19 19 19 19 19 18 17 16 17 17 19 18 17 17 17 17 16 16 16 16 16 15 15 14 12 12 11 10 10 10 9 9 9 9 9 10 10 9 10 10 10 10
19 19 20 19 19 19 20 19 18 17 17 17 19 19 18 17 17 18 18 17 17 17 17 17 16 16 15 15 14 14 12 12 11 11 11 11 12 12 13 13 13 13 13 13
20 20 20 20 19 20 20 20 20 19 19 18 19 19 19 17 17 18 18 18 18 19 19 19 19 18 18 18 17 16 15 15 14 14 14 14 15 15 15 15 15 15 15 15
21 22 22 22 21 21 21 21 20 19 19 19 20 19 19 17 18 18 19 20 20 20 20 20 20 20 20 20 20 19 19 18 18 17 16 17 17 17 17 17 17 17 16 16
22 22 23 24 23 22 22 22 22 21 21 20 19 20 20 20 19 19 20 20 20 20 21 21 21 22 22 22 22 22 22 21 20 20 19 19 19 19 19 19 19 19 18 18
23 23 23 24 24 25 25 24 23 23 23 23 22 22 21 21 21 21 21 21 21 21 21 22 23 24 23 23 23 24 24 24 23 23 23 23 23 22 22 22 22 21 20 19
24 25 24 23 24 25 26 26 25 25 25 25 24 23 23 23 22 22 22 22 22 22 22 22 23 25 25 25 26 26 26 26 26 26 26 25 25 24 24 24 25 24 23 22
25 26 26 24 23 25 26 27 27 27 27 27 26 25 26 27 25 24 24 24 24 24 24 24 25 25 27 28 28 28 29 29 29 29 29 29 28 27 27 27 27 26 25 25
27 28 28 28 28 29 29 28 29 29 29 29 28 28 28 28 27 25 25 25 25 25 26 26 26 27 28 29 30 30 30 31 31 31 31 31 31 30 29 29 29 29 28 27
29 29 29 29 30 31 31 31 31 31 30 30 30 29 28 29 29 27 27 26 26 27 27 27 28 28 29 30 30 31 31 31 31 32 32 32 32 31 31 31 31 30 29 28
30 30 30 30 30 31 32 31 32 33 32 32 32 32 31 31 31 30 29 29 28 29 30 29 29 30 30 31 32 32 32 33 33 34 33 33 33 34 33 32 31 30 30 30
32 32 32 32 33 33 32 32 32 33 33 33 33 33 34 33 32 32 32 31 31 31 31 31 30 30 31 32 32 33 33 34 35 36 35 34 34 34 34 33 33 32 32 32
34 34 34 34 35 35 34 34 33 34 35 35 35 34 34 34 33 34 33 33 32 33 32 32 32 32 32 32 33 33 33 34 36 36 35 34 34 35 35 35 34 34 34 34
35 36 36 37 36 36 35 36 35 35 37 36 35 35 35 35 35 36 34 33 33 34 34 33 33 33 33 33 34 34 33 34 34 35 35 35 35 35 36 35 35 36 35 34
35 36 37 37 37 37 37 36 36 37 38 36 36 36 36 36 37 36 34 33 34 34 33 33 33 33 33 34 34 34 34 34 33 33 35 36 37 37 36 36 37 36 35 35
35 35 36 36 37 38 38 38 38 39 39 37 37 37 37 37 37 36 35 35 34 34 34 33 34 34 34 35 35 35 35 35 34 35 35 36 38 39 38 37 37 37 37 37
35 35 36 37 38 39 38 38 38 38 39 38 38 37 37 37 37 36 35 35 35 34 35 35 35 36 36 36 36 36 36 36 36 37 37 37 38 39 38 38 38 39 39 39
36 36 36 36 36 37 38 38 37 37 38 38 38 37 37 37 36 36 35 35 35 36 35 35 35 35 36 36 37 37 37 37 37 37 37 37 38 38 38 38 39 39 39 40
36 36 36 36 37 37 37 37 37 37 37 37 37 37 36 36 36 36 36 36 37 37 37 36 36 36 37 37 37 36 37 36 37 37 37 37 37 37 38 38 39 40 40 40
35 36 36 36 37 37 36 36 37 36 36 36 36 36 36 36 36 36 36 37 38 38 38 38 38 38 37 36 37 37 36 36 37 37 38 38 38 38 39 39 39 40 40 40

GEFSCGP_500_meanwind_240.txt.gz
Wind_Speed
7 7 7 7 8 7 6 7 10 10 9 10 11 12 11 10 9 8 8 8 8 7 7 7 7 7 6 6 5 5 4 3 2 2 2 1 1 1 1 1 2 2 2 3
8 8 9 10 10 10 10 11 12 11 11 13 13 12 13 12 11 10 10 11 10 8 7 7 7 6 6 5 4 4 4 3 3 2 1 1 1 1 1 1 1 2 3 3
10 10 11 11 11 12 13 12 13 12 12 13 12 13 14 13 13 13 12 11 11 10 8 8 7 6 6 5 4 4 4 4 3 2 2 2 2 2 2 2 3 3 3 4
13 13 13 14 13 13 13 13 15 14 15 14 13 15 16 15 14 15 14 13 12 12 11 9 8 7 7 7 6 5 4 5 4 4 3 4 4 3 3 3 4 5 5 6
14 14 15 15 14 14 15 15 16 16 16 16 15 15 18 16 15 15 14 13 13 14 13 11 9 8 8 8 7 6 6 6 6 5 5 5 5 5 5 6 6 7 7 7
15 15 16 16 15 16 16 16 16 14 14 15 14 15 18 19 16 16 16 15 14 15 12 12 11 10 8 9 9 8 8 7 7 7 7 7 7 7 7 7 8 8 9 9
15 16 16 16 16 15 16 15 15 14 14 15 13 14 18 20 19 17 17 16 16 14 13 13 13 12 12 11 10 10 10 10 10 9 10 10 9 9 9 9 9 9 10 11
16 17 16 17 17 16 16 16 16 16 14 14 12 13 17 20 18 17 18 17 16 15 14 15 15 15 14 13 13 12 12 12 12 12 12 12 12 11 11 11 11 11 12 12
15 16 17 19 19 18 18 18 16 18 18 18 17 16 18 17 19 18 19 18 17 16 15 15 15 16 16 16 15 15 15 14 14 14 14 13 14 13 13 13 13 14 14 14
18 19 17 19 19 18 19 18 18 18 19 19 17 18 19 20 19 19 19 19 19 18 17 17 17 17 19 19 18 17 18 17 16 16 16 16 15 16 16 16 16 16 16 16
19 20 18 17 17 17 18 18 20 21 20 19 19 19 18 19 20 21 21 21 21 20 18 18 19 19 20 21 21 20 19 19 19 19 18 18 18 18 19 19 19 19 18 18
20 19 20 18 16 18 18 19 20 21 22 22 21 20 21 20 22 23 24 23 22 23 22 21 21 21 21 22 22 22 22 21 21 21 21 21 21 21 21 21 21 21 21 21
21 21 21 18 16 18 20 20 21 22 24 23 23 23 23 24 24 24 25 25 25 25 24 24 23 23 23 23 24 23 23 23 23 23 24 24 23 24 25 24 24 24 24 23
24 24 23 21 18 17 19 20 21 21 23 24 24 26 25 26 26 25 27 25 25 26 26 25 26 25 25 25 25 26 25 25 25 25 25 26 26 27 27 27 27 27 26 26
27 27 26 26 23 22 22 22 22 23 24 24 25 26 26 27 28 28 28 27 28 28 27 27 27 27 27 27 27 28 28 27 28 28 27 28 28 28 29 30 30 30 29 28
28 29 28 28 27 27 27 26 25 26 25 25 26 28 28 32 32 31 31 31 32 31 30 30 30 29 29 29 29 29 31 30 30 30 30 30 30 30 31 31 31 31 31 29
29 30 30 30 29 29 29 26 25 27 28 28 29 30 30 32 33 33 33 34 34 34 33 33 33 32 32 32 32 31 31 31 31 31 32 32 32 33 32 33 33 32 31 30
30 31 31 31 30 32 29 26 26 28 29 28 29 31 32 33 34 36 36 36 36 35 35 35 35 35 34 33 33 33 32 32 32 32 33 34 34 35 34 34 33 33 33 32
32 32 32 31 31 31 29 27 27 27 30 30 32 33 33 34 36 38 39 38 38 37 36 36 36 36 35 35 35 35 34 33 33 34 34 35 36 36 36 35 35 35 34 34
31 33 33 32 32 32 29 28 30 31 31 33 35 36 35 34 35 38 39 39 39 37 37 36 36 36 36 36 36 36 35 35 36 36 36 36 37 37 37 37 37 37 37 36
30 32 32 33 33 33 32 32 32 33 35 36 36 37 36 36 37 39 40 39 39 38 38 38 37 36 36 36 36 36 36 37 37 37 37 36 36 37 37 37 38 38 37 36
31 30 31 32 33 33 35 35 35 36 37 37 38 39 39 39 39 40 41 42 41 40 38 37 37 37 37 37 36 36 37 37 37 37 36 36 37 36 36 37 37 37 37 36
33 33 32 33 34 36 37 38 38 38 38 38 39 40 40 40 40 42 42 42 42 41 37 36 37 37 37 38 38 37 37 37 38 37 38 38 38 37 37 38 37 37 37 37
33 35 36 36 37 37 38 39 40 40 40 40 40 41 41 42 42 42 42 42 41 41 39 38 38 38 38 38 38 38 38 38 38 38 38 38 38 38 38 39 39 38 38 38
35 36 38 37 37 38 39 41 41 41 41 41 42 43 43 43 43 42 42 42 42 42 41 39 38 38 37 37 38 39 39 38 38 38 38 38 38 38 38 37 37 38 38 38
35 36 38 39 38 39 39 39 40 41 41 41 42 43 42 42 42 42 41 42 42 42 42 41 40 39 38 38 39 39 38 37 37 37 37 37 37 37 38 37 37 37 37 37

GEFSCGP_500_meanwind_246.txt.gz
Wind_Speed
12 11 9 9 9 8 9 8 6 4 6 6 7 7 7 7 7 9 9 9 10 9 6 5 6 6 6 6 5 5 5 5 4 4 4 4 4 4 4 3 3 3 3 2
12 11 9 9 10 10 10 9 7 6 7 7 8 8 8 8 6 8 9 10 9 8 6 5 5 5 5 4 4 4 4 4 4 3 3 3 3 3 3 2 2 2 1 1
12 10 10 9 9 11 12 12 10 9 9 10 11 11 10 9 8 8 8 10 10 9 6 4 5 4 4 3 4 3 3 2 3 2 2 2 2 2 2 1 1 1 1 1
13 12 11 10 10 11 14 12 11 11 12 13 14 13 11 10 10 8 8 9 9 9 6 5 4 4 3 3 3 2 1 1 1 1 1 1 1 1 1 1 2 2 3 3
14 12 11 11 10 11 13 13 13 13 14 14 14 15 11 11 9 8 8 8 9 9 8 7 6 5 4 3 3 2 2 1 1 1 1 1 2 2 2 2 3 3 4 4
14 14 14 12 12 12 13 14 15 15 16 17 14 15 12 10 9 8 7 8 9 9 9 9 8 7 6 5 4 4 4 3 3 3 3 3 4 4 4 4 4 4 5 5
15 15 14 14 14 12 13 15 16 17 17 16 15 16 12 11 10 9 9 9 10 9 10 10 9 9 9 8 7 7 6 6 5 5 5 6 6 6 6 6 6 6 6 7
16 16 14 14 14 13 13 15 16 17 16 15 16 16 13 12 12 11 10 10 10 10 10 9 10 11 11 11 10 10 9 8 8 8 8 8 8 8 8 8 8 8 8 9
16 15 14 14 13 14 14 15 16 17 17 18 17 16 15 13 13 11 11 12 12 12 11 10 10 11 12 12 12 11 11 11 10 10 10 10 10 10 10 10 10 11 11 11
15 14 14 14 14 15 15 15 17 19 20 20 19 17 16 14 14 13 14 13 13 14 13 13 12 12 12 13 13 13 13 12 12 12 12 12 11 12 12 13 13 13 13 13
16 16 15 16 17 15 16 16 18 19 21 21 22 20 19 18 16 15 15 15 16 16 16 15 14 14 15 15 15 15 14 14 14 14 14 14 14 14 15 15 16 16 16 16
18 19 19 19 19 18 18 18 18 20 20 21 22 21 18 20 19 17 18 19 18 17 18 18 17 17 17 16 17 17 17 17 17 17 18 18 18 18 18 18 18 19 19 19
21 21 21 21 21 21 21 21 21 22 22 23 24 23 20 22 22 22 21 20 20 19 20 20 20 20 19 19 19 19 19 19 20 20 20 21 21 21 21 21 22 22 22 22
24 24 24 24 24 24 25 24 24 24 25 26 26 25 24 24 24 24 23 24 23 23 23 23 22 22 22 22 21 22 22 22 23 22 23 24 24 24 24 24 24 24 24 24
27 28 27 27 26 26 27 26 26 27 27 28 28 27 26 25 26 27 26 26 27 26 25 24 24 24 25 26 25 25 25 26 26 25 26 26 26 27 26 26 26 26 26 26
30 31 30 30 29 29 28 27 28 29 29 30 30 30 28 27 28 29 30 30 29 28 27 26 26 28 28 28 28 28 28 28 28 28 28 27 27 28 27 27 27 27 27 28
32 32 31 31 30 31 31 29 30 31 32 33 33 31 31 31 30 31 31 31 31 32 31 29 29 30 30 30 30 30 31 31 31 30 30 30 29 30 29 29 29 28 28 28
34 33 32 32 32 33 31 30 31 32 33 34 34 34 32 32 32 32 33 32 32 33 32 32 31 30 31 32 33 34 34 34 34 33 33 32 31 31 30 30 30 30 30 30
34 34 34 34 33 33 31 31 32 33 34 33 34 34 34 34 35 35 35 35 34 33 35 35 34 34 34 35 35 35 36 37 37 35 34 33 32 32 32 32 32 32 33 32
34 34 35 35 35 34 32 32 33 33 35 35 35 35 35 35 36 36 36 37 37 37 37 38 38 37 37 37 36 36 37 38 36 34 35 36 35 34 33 34 34 34 34 34
34 35 36 36 36 36 34 33 33 35 35 35 36 37 36 36 37 37 39 40 40 39 39 39 40 40 39 38 38 38 38 38 37 36 36 35 35 33 33 34 34 33 34 34
34 35 36 36 36 36 35 35 35 36 36 37 37 37 38 38 39 39 40 40 41 41 41 40 41 40 39 38 38 38 39 38 37 37 36 36 36 34 34 34 35 35 35 35
35 35 36 37 36 36 37 36 36 37 38 37 38 38 39 39 40 39 40 41 40 40 40 40 41 39 38 39 38 38 38 39 38 37 37 37 37 36 36 36 37 36 36 36
35 35 36 36 36 37 38 38 38 38 38 38 38 38 39 40 41 41 41 41 40 40 40 41 41 39 38 38 38 38 38 38 37 37 37 36 36 36 36 37 37 38 37 36
35 35 36 36 37 39 38 39 40 40 40 40 40 40 40 41 41 42 42 41 39 39 40 40 40 39 38 37 37 38 38 37 37 37 38 37 36 35 35 36 36 36 36 36
34 36 37 37 37 38 38 39 40 41 41 41 41 41 42 42 42 42 40 38 38 38 38 38 38 38 38 37 37 37 37 38 37 37 37 37 36 35 35 35 35 35 35 35

GEFSCGP_500_meanwind_252.txt.gz
Wind_Speed
13 13 11 10 10 9 9 9 8 6 5 5 5 5 4 4 4 5 5 5 5 5 5 4 4 4 4 4 3 2 3 3 3 3 3 3 3 3 3 3 3 3 2 1
14 13 12 12 12 11 11 11 10 9 8 8 7 7 6 5 4 4 4 4 5 5 3 4 5 3 3 3 2 1 1 2 2 2 2 3 3 3 3 4 4 3 2 2
15 14 14 13 13 12 12 12 12 12 11 11 10 8 7 7 6 5 5 5 4 4 4 3 4 3 2 2 2 1 0 1 1 2 2 3 3 4 3 4 4 4 3 3
16 16 15 15 14 14 14 13 13 13 14 13 12 10 8 8 7 7 7 6 5 5 5 4 3 3 3 3 2 2 1 0 1 1 2 3 4 4 5 5 5 5 5 5
16 16 16 16 15 15 14 15 14 15 15 15 14 14 12 11 9 8 7 7 6 6 6 5 4 3 3 4 5 4 3 2 2 3 3 4 5 5 6 6 6 6 6 6
17 16 16 16 15 15 15 15 16 17 17 18 16 17 14 12 11 10 9 9 8 7 7 7 6 5 4 5 6 6 5 5 5 5 5 5 5 6 6 7 7 7 7 8
18 17 16 16 16 16 16 16 17 17 18 17 17 18 14 13 13 12 12 10 10 9 9 8 7 7 7 7 8 8 8 7 7 7 7 7 7 7 8 8 9 9 9 10
18 18 17 16 16 16 16 16 17 18 17 16 16 17 14 14 14 14 14 13 11 11 11 10 9 9 10 10 10 10 10 10 9 9 9 9 8 9 10 10 11 11 12 12
17 17 18 17 17 17 16 16 17 19 19 18 17 16 14 14 14 15 14 14 13 12 12 12 11 11 11 11 12 12 12 12 12 11 11 11 11 11 12 12 13 13 14 14
17 17 17 18 19 19 18 17 18 19 20 20 18 17 15 15 16 15 15 15 15 15 14 14 14 13 11 11 12 14 14 13 13 13 13 13 14 14 14 15 15 16 16 17
17 17 17 19 19 19 19 20 19 19 20 20 20 17 16 17 18 17 16 16 17 17 16 15 15 16 15 14 14 14 15 16 16 16 15 16 16 16 16 17 18 18 19 19
19 19 19 19 20 21 21 21 21 21 21 22 22 20 18 18 18 18 18 18 18 19 18 18 17 18 18 18 18 18 17 17 18 18 18 18 19 19 19 20 20 20 20 21
21 22 22 22 22 22 23 23 23 23 24 24 24 23 20 20 21 20 20 20 21 21 21 21 20 20 20 21 21 20 20 20 20 20 20 21 22 23 23 23 23 23 24 23
24 24 24 25 24 24 25 26 26 26 27 27 27 26 24 23 23 23 22 22 23 23 24 24 24 22 22 22 23 23 23 23 23 23 23 23 24 24 25 26 26 25 26 25
26 27 26 27 26 26 27 28 29 29 29 30 29 29 27 25 25 25 24 24 24 24 24 25 26 25 24 24 25 25 26 26 26 26 26 26 26 26 27 27 27 28 27 27
29 29 28 29 29 30 31 31 31 31 32 32 31 31 29 28 26 26 26 26 26 25 25 25 25 26 27 27 27 27 27 28 28 29 29 29 29 29 29 29 30 30 29 29
32 32 31 31 32 32 33 31 31 32 33 33 33 32 32 31 29 28 28 28 27 26 27 27 27 27 28 28 29 30 30 30 30 31 31 32 32 31 31 32 32 32 32 32
34 34 35 34 34 35 33 33 33 33 33 33 33 33 33 33 32 31 31 31 30 30 30 31 31 30 30 30 31 32 33 32 32 33 33 34 33 33 34 34 33 34 34 34
36 37 37 37 36 36 34 34 34 34 34 33 34 34 34 33 32 32 33 34 34 33 33 33 33 33 33 33 33 33 34 34 34 34 34 35 35 36 36 35 35 35 35 34
38 38 38 38 38 37 36 35 36 36 36 35 35 35 35 34 34 33 33 34 34 35 34 35 35 36 35 36 36 36 36 36 35 35 35 36 37 37 37 37 37 36 35 34
38 39 39 38 38 38 37 36 36 37 37 37 37 36 36 36 35 34 34 35 36 36 37 37 37 39 38 38 38 38 38 38 37 36 37 37 37 38 38 37 38 37 36 35
38 38 38 38 39 39 38 37 37 37 37 37 37 37 37 38 37 36 36 37 37 38 38 39 40 40 40 40 40 39 39 40 39 39 38 38 38 39 38 38 37 37 36 35
37 37 37 38 38 39 38 38 38 38 38 38 38 38 38 38 38 38 39 39 39 40 40 40 41 41 42 41 41 41 41 40 41 41 40 40 39 38 37 37 37 36 35 35
37 37 37 38 38 38 38 38 39 39 39 38 38 38 38 39 39 40 40 40 40 40 40 40 41 41 41 41 41 41 41 41 41 40 39 38 37 37 37 37 37 37 37 35
36 37 37 38 38 39 39 39 39 39 40 39 39 39 39 39 40 40 40 39 39 39 39 39 40 40 40 40 41 41 40 40 39 39 37 37 37 36 37 37 37 38 37 36
35 36 36 36 37 38 38 38 40 40 40 40 40 40 40 40 40 40 40 40 40 39 39 40 40 40 40 40 39 40 40 39 40 39 38 38 37 37 37 37 37 38 37 35

GEFSCGP_500_meanwind_258.txt.gz
Wind_Speed
9 8 8 8 8 8 7 6 6 6 6 4 3 3 3 4 4 4 5 5 3 3 3 2 2 2 2 1 1 0 1 1 2 2 2 3 3 3 4 4 4 4 3 2
10 10 10 10 9 9 8 8 8 8 8 7 5 5 5 5 5 4 5 6 5 4 4 4 3 3 3 2 2 2 2 2 2 2 3 3 4 4 4 3 4 4 3 3
12 12 12 11 10 10 10 10 10 10 10 9 7 6 6 6 6 7 7 7 7 6 6 6 5 5 5 4 4 4 3 4 4 4 4 4 4 5 5 5 4 4 4 4
15 14 13 12 12 11 11 12 11 11 10 10 9 8 8 8 8 8 9 8 8 7 8 7 7 7 6 6 6 6 5 5 5 6 6 6 6 6 7 6 6 5 6 6
16 15 14 14 13 13 13 13 12 13 12 11 11 10 10 10 10 9 10 10 9 8 8 8 8 8 9 8 8 8 7 7 7 7 7 7 7 8 8 7 7 7 7 7
17 16 15 15 15 15 14 13 13 12 11 12 12 11 10 11 11 10 10 10 10 9 9 10 10 10 10 10 10 10 9 9 9 9 8 9 9 9 9 9 9 9 9 9
16 17 17 16 17 16 14 12 11 11 11 12 12 11 12 12 11 11 11 12 11 11 11 11 12 12 12 12 12 11 11 11 11 11 10 10 10 11 11 11 11 11 10 11
16 17 17 17 17 17 15 13 12 11 11 12 13 12 12 12 12 12 12 12 13 13 12 12 12 13 14 14 14 14 13 13 13 12 12 12 12 12 13 13 13 13 13 13
17 17 17 18 18 17 16 15 14 14 13 13 13 13 13 13 13 13 12 12 13 14 13 13 12 13 14 15 15 15 15 14 14 15 14 14 14 14 15 15 15 15 15 15
19 18 18 19 19 18 18 17 16 14 13 13 13 13 13 14 14 14 14 14 15 15 14 14 14 14 15 15 15 16 16 16 16 16 16 16 17 17 17 17 17 17 18 17
19 19 19 20 20 18 18 18 17 16 16 14 14 14 15 15 14 15 15 15 15 15 16 17 17 17 17 16 16 16 16 16 17 18 19 19 18 19 19 19 19 19 19 20
20 19 19 19 19 19 19 18 17 17 17 17 16 17 19 16 15 15 16 17 17 17 18 18 19 19 19 19 18 18 18 18 19 20 20 20 20 21 21 21 21 21 21 22
21 20 19 18 20 20 20 19 19 19 19 19 18 18 20 19 18 18 18 18 18 18 19 19 20 20 21 21 21 21 21 21 21 22 22 22 22 22 22 22 23 24 24 24
23 22 21 20 20 21 22 21 21 21 20 21 21 20 22 22 21 20 20 20 20 20 21 21 22 22 23 23 24 24 24 25 25 24 25 24 24 24 24 24 24 25 25 26
25 25 25 25 24 24 25 24 24 24 23 23 23 24 24 24 24 23 23 23 23 23 23 24 25 25 25 26 26 26 27 28 28 27 27 27 27 26 26 27 27 27 27 27
27 28 28 28 27 27 27 26 26 27 27 27 26 27 27 27 27 26 26 26 26 26 26 27 27 28 28 28 28 29 29 29 30 30 30 30 29 29 28 28 29 29 29 30
29 30 29 29 29 29 30 28 29 29 29 28 28 29 29 30 29 29 28 28 28 28 28 29 29 30 30 30 30 31 31 32 32 33 33 33 32 32 32 31 31 31 32 32
30 31 31 31 31 32 31 31 31 31 31 31 31 31 31 31 31 30 30 31 31 30 31 31 31 31 31 32 32 32 33 33 33 34 35 34 34 35 35 34 33 33 34 34
31 31 32 32 33 34 34 34 33 33 34 34 34 33 33 32 33 33 32 32 32 31 31 32 33 33 33 33 34 34 34 35 34 34 36 36 36 37 37 37 36 36 36 36
32 32 33 33 33 33 34 34 33 34 36 35 35 35 34 33 34 35 34 33 33 33 33 33 34 34 34 34 35 35 36 36 36 36 37 37 37 38 39 39 38 39 38 37
33 33 33 34 34 34 35 35 34 35 36 35 35 35 35 34 35 35 35 35 35 35 35 35 36 36 36 36 36 37 36 36 36 38 38 38 38 39 39 39 39 39 39 39
34 34 34 34 34 35 35 36 36 36 36 36 36 36 36 36 36 36 36 36 36 36 37 37 38 38 38 38 39 39 38 38 38 38 39 39 39 39 39 39 38 38 39 40
34 34 34 34 35 35 36 37 37 37 37 37 37 36 36 37 37 36 36 37 37 37 38 39 39 39 40 40 41 40 40 40 39 39 39 39 39 40 40 40 40 40 40 40
33 34 34 35 35 36 36 36 37 37 37 37 37 37 37 37 37 37 37 38 38 38 38 39 39 39 39 40 41 41 41 40 40 39 39 39 40 40 40 40 40 40 40 40
32 33 33 33 33 33 33 34 35 36 36 37 37 37 37 37 37 38 38 38 39 39 38 39 39 39 39 40 40 41 41 41 41 40 40 40 40 41 40 40 40 39 39 39
30 31 31 32 32 33 33 34 34 35 35 36 36 36 37 37 38 38 38 39 39 39 39 39 39 40 40 40 40 40 40 40 41 40 40 39 39 39 39 40 39 39 38 37